Data for 02/11/2008

Time Sea-Level Adjusted Pressure Absolute Pressure Temperature Relative Humidity Dew Point Precipitation   
(mb) (inHg) (mb) (inHg) (C) (F) (%) (C) (F) (mm) (in)
00:01 1015 29.97 844 24.92 -0.4 31.2 97 -0.8 30.5 0
00:02 1015 29.97 844 24.92 -0.5 31.1 97 -0.9 30.4 0
00:03 1015 29.97 844 24.92 -0.6 31 97 -0.9 30.3 0
00:04 1015 29.97 844 24.92 -0.6 31 98 -0.9 30.3 0
00:05 1015 29.97 844 24.92 -0.7 30.8 98 -1 30.2 0
00:06 1015 29.97 844 24.92 -0.7 30.8 98 -1 30.2 0
00:07 1015 29.97 844 24.92 -0.7 30.8 98 -1 30.2 0
00:08 1015 29.97 845 24.95 -0.7 30.8 98 -1 30.2 0
00:09 1015 29.97 845 24.95 -0.7 30.8 98 -1 30.2 0
00:10 1015 29.97 845 24.95 -0.7 30.8 98 -1 30.3 0
00:11 1015 29.97 845 24.95 -0.7 30.8 98 -1 30.3 0
00:12 1016 30 845 24.95 -0.7 30.7 98 -1 30.2 0
00:13 1016 30 845 24.95 -0.7 30.7 98 -1 30.2 0
00:14 1016 30 845 24.95 -0.8 30.6 98 -1.1 30.1 0
00:15 1016 30 845 24.95 -0.8 30.6 98 -1 30.2 0
00:16 1016 30 845 24.95 -0.8 30.6 98 -1.1 30.1 0
00:17 1016 30 845 24.95 -0.8 30.6 98 -1 30.1 0
00:18 1016 30 845 24.95 -0.8 30.6 98 -1.1 30.1 0
00:19 1016 30 845 24.95 -0.8 30.5 98 -1.1 30.1 0
00:20 1016 30 845 24.95 -0.8 30.5 98 -1.1 30.1 0
00:21 1016 30 845 24.95 -0.9 30.4 98 -1.1 30 0
00:22 1016 30 845 24.95 -0.9 30.4 98 -1.2 29.9 0
00:23 1016 30 845 24.95 -1 30.3 98 -1.2 29.8 0
00:24 1016 30 845 24.95 -1 30.2 98 -1.3 29.7 0
00:25 1016 30 845 24.95 -1 30.2 98 -1.2 29.8 0
00:26 1016 30 845 24.95 -1 30.2 98 -1.2 29.8 0
00:27 1016 30 845 24.95 -1 30.2 99 -1.2 29.8 0
00:28 1016 30 845 24.95 -1 30.2 98 -1.2 29.8 0
00:29 1016 30 845 24.95 -1 30.2 99 -1.2 29.9 0
00:30 1016 30 845 24.95 -1 30.2 99 -1.2 29.8 0
00:31 1016 30 845 24.95 -1 30.2 99 -1.2 29.8 0
00:32 1016 30 845 24.95 -1 30.2 98 -1.2 29.8 0
00:33 1016 30 845 24.95 -1 30.2 98 -1.2 29.8 0
00:34 1016 30 845 24.95 -1 30.2 99 -1.2 29.8 0
00:35 1016 30 845 24.95 -1 30.2 99 -1.2 29.9 0
00:36 1016 30 845 24.95 -1 30.1 99 -1.2 29.8 0
00:37 1016 30 845 24.95 -1 30.2 99 -1.2 29.8 0
00:38 1016 30 845 24.95 -1 30.1 98 -1.3 29.7 0
00:39 1016 30 845 24.95 -1 30.1 99 -1.2 29.8 0
00:40 1016 30 845 24.95 -1 30.1 99 -1.3 29.7 0
00:41 1016 30 845 24.95 -1.1 30.1 98 -1.3 29.7 0
00:42 1016 30 845 24.95 -1 30.1 99 -1.2 29.8 0
00:43 1016 30 845 24.95 -1.1 30.1 99 -1.3 29.7 0
00:44 1016 30 845 24.95 -1 30.1 99 -1.3 29.7 0
00:45 1016 30 845 24.95 -1 30.1 99 -1.2 29.8 0
00:46 1016 30 845 24.95 -1.1 30.1 98 -1.3 29.7 0
00:47 1016 30 845 24.95 -1.1 30.1 99 -1.3 29.7 0
00:48 1016 30 845 24.95 -1.1 30 99 -1.3 29.7 0
00:49 1016 30 845 24.95 -1.1 30.1 98 -1.3 29.7 0
00:50 1016 30 845 24.95 -1.1 30 98 -1.3 29.6 0
00:51 1016 30 845 24.95 -1.1 30 98 -1.3 29.6 0
00:52 1016 30 845 24.95 -1.1 30.1 99 -1.3 29.7 0
00:53 1016 30 845 24.95 -1.1 30.1 98 -1.3 29.7 0
00:54 1016 30 845 24.95 -1.1 30 98 -1.3 29.6 0
00:55 1016 30 845 24.95 -1.1 30 98 -1.4 29.6 0
00:56 1016 30 845 24.95 -1.1 30 98 -1.4 29.5 0
00:57 1016 30 845 24.95 -1.1 29.9 98 -1.4 29.5 0
00:58 1016 30 845 24.95 -1.2 29.9 98 -1.4 29.4 0
00:59 1016 30 845 24.95 -1.2 29.9 98 -1.4 29.4 0
01:00 1016 30 845 24.95 -1.1 30 98 -1.4 29.4 0
01:01 1016 30 845 24.95 -1.1 29.9 98 -1.5 29.4 0
01:02 1016 30 845 24.95 -1.1 30 97 -1.4 29.4 0
01:03 1016 30 845 24.95 -1.1 30.1 97 -1.5 29.4 0
01:04 1016 30 845 24.95 -1.1 30.1 97 -1.5 29.2 0
01:05 1016 30 845 24.95 -1.1 30.1 96 -1.6 29.1 0
01:06 1016 30 845 24.95 -1.1 30.1 96 -1.6 29 0
01:07 1016 30 845 24.95 -1.1 30 96 -1.7 28.9 0
01:08 1016 30 845 24.95 -1.1 30.1 95 -1.7 28.9 0
01:09 1016 30 846 24.98 -1 30.2 95 -1.7 28.9 0
01:10 1016 30 846 24.98 -1 30.3 95 -1.7 28.9 0
01:11 1016 30 846 24.98 -1 30.2 94 -1.8 28.8 0
01:12 1016 30 846 24.98 -1 30.2 94 -1.8 28.8 0
01:13 1016 30 846 24.98 -1 30.2 94 -1.8 28.7 0
01:14 1016 30 846 24.98 -1 30.2 94 -1.8 28.7 0
01:15 1016 30 846 24.98 -1 30.2 94 -1.9 28.7 0
01:16 1016 30 846 24.98 -1 30.1 94 -1.9 28.6 0
01:17 1016 30 845 24.95 -1.1 30.1 94 -1.9 28.6 0
01:18 1016 30 845 24.95 -1.1 30 94 -2 28.4 0
01:19 1016 30 845 24.95 -1.2 29.9 94 -2.1 28.3 0
01:20 1016 30 845 24.95 -1.2 29.9 94 -2.1 28.3 0
01:21 1016 30 845 24.95 -1.2 29.9 94 -2.1 28.3 0
01:22 1016 30 845 24.95 -1.2 29.9 93 -2.2 28.1 0
01:23 1016 30 845 24.95 -1.2 29.8 93 -2.2 28.1 0
01:24 1016 30 845 24.95 -1.2 29.8 93 -2.2 28 0
01:25 1016 30 845 24.95 -1.3 29.7 93 -2.3 27.9 0
01:26 1016 30 845 24.95 -1.3 29.7 93 -2.3 27.9 0
01:27 1016 30 846 24.98 -1.3 29.7 93 -2.3 27.8 0
01:28 1016 30 846 24.98 -1.3 29.6 93 -2.3 27.8 0
01:29 1016 30 846 24.98 -1.3 29.6 93 -2.3 27.8 0
01:30 1016 30 846 24.98 -1.3 29.7 93 -2.3 27.8 0
01:31 1016 30 846 24.98 -1.2 29.8 92 -2.3 27.8 0
01:32 1016 30 846 24.98 -1.2 29.8 92 -2.4 27.7 0
01:33 1016 30 846 24.98 -1.3 29.7 92 -2.4 27.6 0
01:34 1016 30 846 24.98 -1.2 29.8 92 -2.4 27.6 0
01:35 1016 30 846 24.98 -1.2 29.8 91 -2.4 27.6 0
01:36 1017 30.03 846 24.98 -1.2 29.8 91 -2.5 27.5 0
01:37 1017 30.03 846 24.98 -1.2 29.8 91 -2.5 27.5 0
01:38 1017 30.03 846 24.98 -1.2 29.8 91 -2.5 27.5 0
01:39 1017 30.03 846 24.98 -1.2 29.9 91 -2.5 27.5 0
01:40 1017 30.03 846 24.98 -1.2 29.9 90 -2.6 27.4 0
01:41 1017 30.03 846 24.98 -1.2 29.9 90 -2.6 27.3 0
01:42 1017 30.03 846 24.98 -1.2 29.9 90 -2.7 27.2 0
01:43 1017 30.03 846 24.98 -1.2 29.8 90 -2.7 27.2 0
01:44 1017 30.03 846 24.98 -1.3 29.7 90 -2.7 27.1 0
01:45 1017 30.03 846 24.98 -1.3 29.6 89 -2.8 26.9 0
01:46 1017 30.03 846 24.98 -1.4 29.5 90 -2.8 26.9 0
01:47 1017 30.03 846 24.98 -1.4 29.5 90 -2.9 26.8 0
01:48 1017 30.03 846 24.98 -1.4 29.4 90 -2.9 26.7 0
01:49 1017 30.03 846 24.98 -1.5 29.3 90 -3 26.6 0
01:50 1017 30.03 846 24.98 -1.5 29.3 90 -3 26.7 0
01:51 1017 30.03 846 24.98 -1.6 29.2 90 -2.9 26.7 0
01:52 1017 30.03 846 24.98 -1.6 29.1 90 -3 26.7 0
01:53 1017 30.03 846 24.98 -1.7 29 90 -3.1 26.5 0
01:54 1017 30.03 846 24.98 -1.8 28.8 91 -3 26.5 0
01:55 1017 30.03 846 24.98 -1.8 28.8 92 -3 26.6 0
01:56 1017 30.03 846 24.98 -1.8 28.8 91 -3.1 26.5 0
01:57 1017 30.03 846 24.98 -1.8 28.7 91 -3.1 26.5 0
01:58 1017 30.03 846 24.98 -1.9 28.7 91 -3.1 26.4 0
01:59 1017 30.03 846 24.98 -1.9 28.7 91 -3.1 26.4 0
02:00 1017 30.03 846 24.98 -1.8 28.7 91 -3.1 26.4 0
02:01 1017 30.03 846 24.98 -1.8 28.7 91 -3 26.5 0
02:02 1017 30.03 846 24.98 -1.8 28.8 91 -3 26.5 0
02:03 1017 30.03 846 24.98 -1.9 28.6 91 -3.2 26.3 0
02:04 1017 30.03 847 25.01 -1.9 28.5 91 -3.2 26.3 0
02:05 1017 30.03 847 25.01 -1.9 28.5 92 -3.1 26.4 0
02:06 1017 30.03 847 25.01 -1.9 28.5 92 -3 26.6 0
02:07 1017 30.03 847 25.01 -1.9 28.6 92 -3 26.6 0
02:08 1018 30.06 847 25.01 -1.9 28.7 92 -3 26.6 0
02:09 1018 30.06 847 25.01 -1.9 28.7 92 -3 26.6 0
02:10 1018 30.06 847 25.01 -1.9 28.6 92 -3.1 26.5 0
02:11 1018 30.06 847 25.01 -2 28.5 92 -3.1 26.4 0
02:12 1018 30.06 847 25.01 -2 28.3 92 -3.1 26.4 0
02:13 1018 30.06 847 25.01 -2.1 28.3 92 -3.1 26.3 0
02:14 1018 30.06 847 25.01 -2.1 28.2 92 -3.3 26.1 0
02:15 1018 30.06 847 25.01 -2.1 28.3 91 -3.3 26.1 0
02:16 1018 30.06 847 25.01 -2.1 28.2 91 -3.4 25.9 0
02:17 1018 30.06 847 25.01 -2.2 28.1 92 -3.3 26 0
02:18 1018 30.06 847 25.01 -2.2 28.1 92 -3.3 26 0
02:19 1018 30.06 847 25.01 -2.2 28 92 -3.4 25.9 0
02:20 1018 30.06 847 25.01 -2.3 27.8 92 -3.5 25.7 0
02:21 1018 30.06 847 25.01 -2.4 27.7 92 -3.5 25.8 0
02:22 1018 30.06 847 25.01 -2.4 27.6 93 -3.5 25.7 0
02:23 1018 30.06 847 25.01 -2.5 27.6 93 -3.5 25.8 0
02:24 1018 30.06 847 25.01 -2.4 27.6 93 -3.5 25.8 0
02:25 1018 30.06 847 25.01 -2.5 27.5 93 -3.6 25.6 0
02:26 1018 30.06 847 25.01 -2.5 27.5 93 -3.6 25.6 0
02:27 1018 30.06 847 25.01 -2.5 27.4 92 -3.6 25.5 0
02:28 1018 30.06 847 25.01 -2.5 27.4 92 -3.6 25.5 0
02:29 1018 30.06 847 25.01 -2.5 27.5 92 -3.6 25.5 0
02:30 1018 30.06 847 25.01 -2.6 27.4 92 -3.7 25.4 0
02:31 1018 30.06 847 25.01 -2.6 27.3 92 -3.7 25.4 0
02:32 1018 30.06 847 25.01 -2.6 27.2 92 -3.8 25.2 0
02:33 1018 30.06 847 25.01 -2.7 27.2 92 -3.8 25.2 0
02:34 1018 30.06 847 25.01 -2.8 27 92 -3.9 25 0
02:35 1018 30.06 847 25.01 -2.8 27 92 -3.8 25.1 0
02:36 1018 30.06 847 25.01 -2.8 27 92 -3.9 25 0
02:37 1018 30.06 847 25.01 -2.8 26.9 92 -3.9 24.9 0
02:38 1018 30.06 847 25.01 -2.9 26.9 92 -3.9 24.9 0
02:39 1018 30.06 847 25.01 -2.9 26.8 92 -4 24.8 0
02:40 1018 30.06 847 25.01 -2.9 26.7 92 -4 24.8 0
02:41 1018 30.06 847 25.01 -3 26.7 92 -4.1 24.7 0
02:42 1018 30.06 847 25.01 -3 26.5 93 -4.1 24.7 0
02:43 1018 30.06 847 25.01 -3.1 26.5 93 -4.1 24.6 0
02:44 1018 30.06 847 25.01 -3.1 26.4 93 -4.1 24.7 0
02:45 1018 30.06 847 25.01 -3.1 26.5 93 -4.1 24.7 0
02:46 1018 30.06 847 25.01 -3.1 26.4 93 -4 24.7 0
02:47 1018 30.06 847 25.01 -3.1 26.5 93 -4.1 24.7 0
02:48 1018 30.06 847 25.01 -3.1 26.4 93 -4.1 24.7 0
02:49 1018 30.06 847 25.01 -3.1 26.5 93 -4 24.8 0
02:50 1018 30.06 847 25.01 -3 26.5 93 -4 24.8 0
02:51 1018 30.06 847 25.01 -3 26.6 93 -4 24.8 0
02:52 1018 30.06 847 25.01 -3 26.6 93 -4 24.8 0
02:53 1018 30.06 847 25.01 -3 26.5 93 -4 24.8 0
02:54 1018 30.06 847 25.01 -3 26.6 93 -4.1 24.7 0
02:55 1018 30.06 847 25.01 -3 26.6 93 -4 24.8 0
02:56 1018 30.06 847 25.01 -3 26.6 93 -4 24.8 0
02:57 1018 30.06 847 25.01 -3.1 26.5 93 -4.1 24.7 0
02:58 1018 30.06 847 25.01 -3 26.5 93 -4.1 24.7 0
02:59 1018 30.06 847 25.01 -3.1 26.5 93 -4.1 24.7 0
03:00 1018 30.06 847 25.01 -3.1 26.5 93 -4 24.8 0
03:01 1018 30.06 847 25.01 -3 26.5 93 -4 24.8 0
03:02 1018 30.06 847 25.01 -3 26.6 93 -4 24.9 0
03:03 1018 30.06 847 25.01 -3 26.6 93 -4 24.9 0
03:04 1018 30.06 847 25.01 -3 26.6 93 -4 24.8 0
03:05 1018 30.06 847 25.01 -3 26.6 93 -4 24.8 0
03:06 1018 30.06 847 25.01 -3 26.6 93 -4 24.9 0
03:07 1018 30.06 847 25.01 -3 26.7 93 -3.9 25 0
03:08 1018 30.06 847 25.01 -2.9 26.7 93 -4 24.9 0
03:09 1018 30.06 847 25.01 -2.9 26.7 93 -3.9 25 0
03:10 1018 30.06 847 25.01 -2.9 26.8 93 -3.9 24.9 0
03:11 1018 30.06 847 25.01 -2.9 26.8 93 -3.9 25 0
03:12 1018 30.06 847 25.01 -2.9 26.8 93 -3.9 24.9 0
03:13 1018 30.06 847 25.01 -2.9 26.7 93 -3.9 24.9 0
03:14 1018 30.06 847 25.01 -2.9 26.7 93 -4 24.9 0
03:15 1018 30.06 847 25.01 -3 26.7 93 -4 24.8 0
03:16 1018 30.06 847 25.01 -2.9 26.7 93 -4 24.9 0
03:17 1018 30.06 847 25.01 -2.9 26.8 93 -3.9 24.9 0
03:18 1018 30.06 847 25.01 -2.9 26.7 92 -4.1 24.7 0
03:19 1018 30.06 847 25.01 -3 26.7 93 -4 24.8 0
03:20 1018 30.06 847 25.01 -3 26.7 92 -4.1 24.7 0
03:21 1018 30.06 847 25.01 -2.9 26.7 92 -4 24.7 0
03:22 1018 30.06 847 25.01 -3 26.6 92 -4.1 24.6 0
03:23 1018 30.06 847 25.01 -3 26.6 92 -4.1 24.7 0
03:24 1018 30.06 847 25.01 -3 26.6 92 -4.1 24.5 0
03:25 1018 30.06 848 25.04 -3 26.6 92 -4.1 24.6 0
03:26 1018 30.06 848 25.04 -3.1 26.5 92 -4.1 24.5 0
03:27 1018 30.06 848 25.04 -3.1 26.5 92 -4.2 24.5 0
03:28 1018 30.06 848 25.04 -3.1 26.4 92 -4.2 24.4 0
03:29 1018 30.06 848 25.04 -3.1 26.4 92 -4.2 24.5 0
03:30 1018 30.06 848 25.04 -3.1 26.4 93 -4.2 24.5 0
03:31 1018 30.06 847 25.01 -3.1 26.4 93 -4.1 24.6 0
03:32 1018 30.06 847 25.01 -3 26.6 92 -4.1 24.6 0
03:33 1018 30.06 847 25.01 -3 26.5 92 -4.2 24.5 0
03:34 1018 30.06 847 25.01 -3.1 26.5 92 -4.2 24.4 0
03:35 1018 30.06 847 25.01 -3.1 26.4 92 -4.3 24.3 0
03:36 1018 30.06 847 25.01 -3.1 26.3 92 -4.3 24.3 0
03:37 1018 30.06 847 25.01 -3.2 26.2 92 -4.3 24.2 0
03:38 1018 30.06 847 25.01 -3.2 26.2 91 -4.5 24 0
03:39 1018 30.06 847 25.01 -3.3 26 91 -4.5 23.8 0
03:40 1018 30.06 847 25.01 -3.5 25.8 92 -4.6 23.7 0
03:41 1018 30.06 847 25.01 -3.5 25.6 91 -4.8 23.4 0
03:42 1018 30.06 847 25.01 -3.7 25.4 91 -4.9 23.2 0
03:43 1018 30.06 848 25.04 -3.8 25.1 92 -5 23.1 0
03:44 1018 30.06 848 25.04 -3.9 24.9 93 -5 23.1 0
03:45 1018 30.06 848 25.04 -3.9 25 93 -4.8 23.3 0
03:46 1018 30.06 847 25.01 -3.9 25 93 -4.9 23.2 0
03:47 1018 30.06 847 25.01 -3.9 25 93 -4.9 23.3 0
03:48 1018 30.06 847 25.01 -3.9 25.1 94 -4.8 23.4 0
03:49 1018 30.06 847 25.01 -3.9 25 93 -4.8 23.3 0
03:50 1018 30.06 847 25.01 -3.9 25 93 -4.9 23.2 0
03:51 1018 30.06 847 25.01 -3.9 25 93 -4.9 23.1 0
03:52 1018 30.06 848 25.04 -4 24.8 92 -5.1 22.8 0
03:53 1018 30.06 848 25.04 -4.1 24.7 92 -5.1 22.7 0
03:54 1018 30.06 847 25.01 -4.1 24.6 93 -5 22.9 0
03:55 1018 30.06 848 25.04 -4.1 24.7 94 -5 23.1 0
03:56 1018 30.06 848 25.04 -4 24.7 93 -5 23 0
03:57 1018 30.06 848 25.04 -4.1 24.7 93 -5 22.9 0
03:58 1018 30.06 848 25.04 -4.1 24.7 93 -5 23 0
03:59 1018 30.06 848 25.04 -4 24.8 94 -4.8 23.3 0
04:00 1018 30.06 848 25.04 -3.9 24.9 93 -4.8 23.3 0
04:01 1018 30.06 848 25.04 -3.9 24.9 93 -5 23.1 0
04:02 1018 30.06 848 25.04 -4 24.8 93 -5 22.9 0
04:03 1018 30.06 848 25.04 -4.1 24.6 93 -5.1 22.8 0
04:04 1018 30.06 848 25.04 -4.1 24.6 93 -5.1 22.9 0
04:05 1018 30.06 848 25.04 -4.1 24.6 93 -5.1 22.8 0
04:06 1019 30.09 848 25.04 -4.2 24.5 92 -5.2 22.6 0
04:07 1018 30.06 848 25.04 -4.3 24.3 92 -5.3 22.4 0
04:08 1018 30.06 848 25.04 -4.4 24.1 92 -5.5 22.1 0
04:09 1019 30.09 848 25.04 -4.5 23.9 93 -5.5 22.1 0
04:10 1019 30.09 848 25.04 -4.6 23.8 93 -5.6 22 0
04:11 1019 30.09 848 25.04 -4.6 23.7 93 -5.6 22 0
04:12 1019 30.09 848 25.04 -4.6 23.6 93 -5.6 21.9 0
04:13 1019 30.09 848 25.04 -4.6 23.8 95 -5.3 22.5 0
04:14 1019 30.09 848 25.04 -4.4 24 94 -5.2 22.6 0
04:15 1019 30.09 848 25.04 -4.4 24.1 93 -5.3 22.4 0
04:16 1019 30.09 848 25.04 -4.4 24.2 95 -5.1 22.9 0
04:17 1019 30.09 848 25.04 -4.1 24.6 96 -4.7 23.5 0
04:18 1019 30.09 848 25.04 -3.9 24.9 95 -4.6 23.7 0
04:19 1019 30.09 848 25.04 -3.8 25.1 95 -4.6 23.8 0
04:20 1019 30.09 848 25.04 -3.7 25.3 94 -4.6 23.8 0
04:21 1019 30.09 848 25.04 -3.6 25.5 94 -4.5 23.9 0
04:22 1019 30.09 848 25.04 -3.5 25.6 93 -4.5 23.9 0
04:23 1019 30.09 848 25.04 -3.5 25.6 93 -4.6 23.8 0
04:24 1019 30.09 848 25.04 -3.6 25.6 92 -4.6 23.7 0
04:25 1019 30.09 848 25.04 -3.6 25.5 93 -4.6 23.7 0
04:26 1019 30.09 848 25.04 -3.6 25.4 92 -4.7 23.5 0
04:27 1019 30.09 848 25.04 -3.8 25.2 93 -4.8 23.3 0
04:28 1019 30.09 848 25.04 -3.9 25.1 92 -5 23 0
04:29 1019 30.09 848 25.04 -3.9 25 94 -4.8 23.4 0
04:30 1019 30.09 848 25.04 -3.8 25.2 92 -4.9 23.2 0
04:31 1019 30.09 848 25.04 -3.9 25 92 -5 23 0
04:32 1019 30.09 848 25.04 -3.9 25 94 -4.8 23.4 0
04:33 1019 30.09 848 25.04 -3.8 25.1 94 -4.7 23.6 0
04:34 1019 30.09 848 25.04 -3.7 25.4 94 -4.5 23.9 0
04:35 1019 30.09 848 25.04 -3.6 25.6 92 -4.7 23.5 0
04:36 1019 30.09 848 25.04 -3.5 25.6 92 -4.7 23.5 0
04:37 1019 30.09 848 25.04 -3.5 25.6 92 -4.7 23.5 0
04:38 1019 30.09 848 25.04 -3.5 25.6 92 -4.7 23.5 0
04:39 1019 30.09 848 25.04 -3.5 25.6 92 -4.7 23.6 0
04:40 1019 30.09 848 25.04 -3.6 25.6 92 -4.7 23.5 0
04:41 1019 30.09 848 25.04 -3.6 25.6 91 -4.8 23.4 0
04:42 1019 30.09 848 25.04 -3.5 25.6 90 -4.9 23.1 0
04:43 1019 30.09 848 25.04 -3.6 25.5 90 -5 23.1 0
04:44 1019 30.09 848 25.04 -3.6 25.5 90 -5 23.1 0
04:45 1019 30.09 848 25.04 -3.5 25.6 91 -4.8 23.4 0
04:46 1019 30.09 848 25.04 -3.4 25.9 91 -4.7 23.5 0
04:47 1019 30.09 848 25.04 -3.1 26.4 90 -4.6 23.7 0
04:48 1019 30.09 848 25.04 -2.9 26.8 88 -4.7 23.5 0
04:49 1019 30.09 848 25.04 -2.8 26.9 87 -4.8 23.4 0
04:50 1019 30.09 848 25.04 -2.8 27 87 -4.7 23.5 0
04:51 1019 30.09 848 25.04 -2.8 27 86 -4.8 23.3 0
04:52 1019 30.09 848 25.04 -2.8 27 86 -4.9 23.2 0
04:53 1019 30.09 848 25.04 -2.8 26.9 86 -4.9 23.2 0
04:54 1019 30.09 848 25.04 -2.8 27 86 -4.9 23.2 0
04:55 1019 30.09 848 25.04 -2.7 27.1 85 -5 23.1 0
04:56 1019 30.09 848 25.04 -2.8 27 84 -5.1 22.9 0
04:57 1019 30.09 848 25.04 -2.9 26.8 85 -5 22.9 0
04:58 1019 30.09 848 25.04 -2.9 26.7 85 -5.1 22.8 0
04:59 1019 30.09 848 25.04 -2.9 26.8 85 -5 23 0
05:00 1019 30.09 848 25.04 -2.7 27.1 84 -5.1 22.9 0
05:01 1019 30.09 848 25.04 -2.6 27.3 82 -5.2 22.6 0
05:02 1019 30.09 848 25.04 -2.4 27.8 80 -5.3 22.5 0
05:03 1019 30.09 848 25.04 -2.1 28.2 79 -5.2 22.7 0
05:04 1019 30.09 848 25.04 -2 28.3 80 -5.1 22.9 0
05:05 1019 30.09 848 25.04 -2.2 28.1 79 -5.2 22.6 0
05:06 1019 30.09 848 25.04 -2.1 28.2 79 -5.2 22.6 0
05:07 1019 30.09 848 25.04 -2 28.5 77 -5.4 22.2 0
05:08 1019 30.09 848 25.04 -1.7 29 76 -5.4 22.4 0
05:09 1019 30.09 848 25.04 -1.6 29.2 77 -5.1 22.8 0
05:10 1019 30.09 848 25.04 -1.6 29.1 76 -5.3 22.5 0
05:11 1019 30.09 848 25.04 -1.7 29 77 -5.2 22.7 0
05:12 1019 30.09 848 25.04 -1.8 28.8 78 -5.2 22.6 0
05:13 1019 30.09 848 25.04 -1.9 28.7 78 -5.2 22.6 0
05:14 1019 30.09 848 25.04 -1.9 28.6 78 -5.2 22.6 0
05:15 1019 30.09 848 25.04 -2 28.5 78 -5.3 22.5 0
05:16 1019 30.09 848 25.04 -2.1 28.2 79 -5.3 22.5 0
05:17 1019 30.09 848 25.04 -2.2 28.1 80 -5.2 22.6 0
05:18 1019 30.09 848 25.04 -2.2 28 80 -5.3 22.5 0
05:19 1019 30.09 848 25.04 -2.2 28 80 -5.3 22.5 0
05:20 1019 30.09 848 25.04 -2.2 28.1 80 -5.2 22.6 0
05:21 1019 30.09 848 25.04 -2.2 28.1 80 -5.2 22.6 0
05:22 1019 30.09 848 25.04 -2.2 28 80 -5.3 22.5 0
05:23 1019 30.09 848 25.04 -2.2 28.1 80 -5.2 22.7 0
05:24 1019 30.09 848 25.04 -2.2 28 80 -5.2 22.7 0
05:25 1019 30.09 848 25.04 -2.3 27.8 81 -5.2 22.7 0
05:26 1019 30.09 848 25.04 -2.4 27.7 81 -5.2 22.6 0
05:27 1019 30.09 848 25.04 -2.4 27.8 81 -5.2 22.6 0
05:28 1019 30.09 848 25.04 -2.3 27.9 81 -5.2 22.7 0
05:29 1019 30.09 848 25.04 -2.2 28 81 -5.1 22.8 0
05:30 1019 30.09 848 25.04 -2.2 28 80 -5.2 22.6 0
05:31 1019 30.09 849 25.07 -2.1 28.2 79 -5.2 22.7 0
05:32 1019 30.09 848 25.04 -2.1 28.3 79 -5.2 22.6 0
05:33 1019 30.09 848 25.04 -2.1 28.2 80 -5.1 22.8 0
05:34 1019 30.09 848 25.04 -2.2 28.1 80 -5.2 22.6 0
05:35 1019 30.09 848 25.04 -2.1 28.2 79 -5.3 22.5 0
05:36 1019 30.09 848 25.04 -2.1 28.3 79 -5.3 22.5 0
05:37 1019 30.09 849 25.07 -2 28.4 78 -5.3 22.5 0
05:38 1019 30.09 848 25.04 -2 28.4 78 -5.3 22.5 0
05:39 1019 30.09 848 25.04 -2 28.4 78 -5.3 22.5 0
05:40 1019 30.09 848 25.04 -2 28.3 79 -5.3 22.5 0
05:41 1019 30.09 848 25.04 -2.1 28.2 79 -5.2 22.6 0
05:42 1019 30.09 848 25.04 -2.2 28 80 -5.3 22.5 0
05:43 1019 30.09 848 25.04 -2.2 28 80 -5.3 22.5 0
05:44 1019 30.09 848 25.04 -2.3 27.9 80 -5.2 22.6 0
05:45 1019 30.09 848 25.04 -2.2 28 80 -5.3 22.5 0
05:46 1019 30.09 848 25.04 -2.2 28 80 -5.3 22.5 0
05:47 1019 30.09 848 25.04 -2.2 28 81 -5.1 22.8 0
05:48 1019 30.09 848 25.04 -2.3 27.8 81 -5.2 22.7 0
05:49 1019 30.09 848 25.04 -2.5 27.6 81 -5.2 22.6 0
05:50 1019 30.09 848 25.04 -2.6 27.3 81 -5.4 22.3 0
05:51 1019 30.09 848 25.04 -2.7 27.2 81 -5.4 22.2 0
05:52 1019 30.09 848 25.04 -2.6 27.3 81 -5.4 22.2 0
05:53 1019 30.09 849 25.07 -2.6 27.4 81 -5.4 22.3 0
05:54 1019 30.09 849 25.07 -2.5 27.4 81 -5.4 22.3 0
05:55 1019 30.09 849 25.07 -2.5 27.5 81 -5.3 22.4 0
05:56 1019 30.09 849 25.07 -2.5 27.6 81 -5.3 22.5 0
05:57 1019 30.09 849 25.07 -2.4 27.6 81 -5.3 22.5 0
05:58 1019 30.09 849 25.07 -2.4 27.7 81 -5.2 22.6 0
05:59 1019 30.09 849 25.07 -2.3 27.8 81 -5.2 22.7 0
06:00 1019 30.09 849 25.07 -2.3 27.8 81 -5.2 22.6 0
06:01 1019 30.09 849 25.07 -2.3 27.9 80 -5.2 22.6 0
06:02 1019 30.09 849 25.07 -2.3 27.9 80 -5.2 22.7 0
06:03 1019 30.09 849 25.07 -2.2 28 80 -5.2 22.6 0
06:04 1019 30.09 849 25.07 -2.2 28 80 -5.2 22.7 0
06:05 1019 30.09 849 25.07 -2.2 28.1 80 -5.2 22.7 0
06:06 1019 30.09 849 25.07 -2.2 28.1 80 -5.1 22.8 0
06:07 1019 30.09 849 25.07 -2.2 28 81 -5.2 22.7 0
06:08 1019 30.09 849 25.07 -2.3 27.8 81 -5.1 22.7 0
06:09 1019 30.09 849 25.07 -2.4 27.7 81 -5.1 22.7 0
06:10 1019 30.09 849 25.07 -2.4 27.6 82 -5.1 22.8 0
06:11 1019 30.09 849 25.07 -2.5 27.6 82 -5.1 22.8 0
06:12 1019 30.09 849 25.07 -2.5 27.5 83 -5.1 22.8 0
06:13 1019 30.09 849 25.07 -2.6 27.4 83 -5.1 22.9 0
06:14 1019 30.09 849 25.07 -2.7 27.2 84 -5 22.9 0
06:15 1019 30.09 849 25.07 -2.7 27.1 84 -5 23 0
06:16 1019 30.09 849 25.07 -2.7 27.1 85 -4.9 23.1 0
06:17 1019 30.09 849 25.07 -2.8 27 85 -5 23 0
06:18 1019 30.09 849 25.07 -2.8 26.9 84 -5.1 22.8 0
06:19 1019 30.09 849 25.07 -2.9 26.8 84 -5.2 22.7 0
06:20 1019 30.09 849 25.07 -2.9 26.8 85 -5.1 22.8 0
06:21 1019 30.09 849 25.07 -2.9 26.8 85 -5.1 22.9 0
06:22 1019 30.09 849 25.07 -2.9 26.9 85 -5 23 0
06:23 1019 30.09 849 25.07 -2.9 26.9 85 -5 22.9 0
06:24 1019 30.09 849 25.07 -2.8 26.9 85 -5.1 22.8 0
06:25 1020 30.12 849 25.07 -2.8 26.9 85 -5.1 22.9 0
06:26 1019 30.09 849 25.07 -2.8 27 84 -5 22.9 0
06:27 1020 30.12 849 25.07 -2.7 27.1 85 -5 23 0
06:28 1020 30.12 849 25.07 -2.7 27.1 85 -5 23 0
06:29 1020 30.12 849 25.07 -2.7 27.2 84 -5 23 0
06:30 1020 30.12 849 25.07 -2.6 27.3 84 -5 23 0
06:31 1020 30.12 849 25.07 -2.6 27.3 84 -5 23 0
06:32 1020 30.12 849 25.07 -2.5 27.4 83 -5 22.9 0
06:33 1020 30.12 849 25.07 -2.5 27.4 83 -5.1 22.9 0
06:34 1020 30.12 849 25.07 -2.5 27.5 83 -5.1 22.9 0
06:35 1020 30.12 849 25.07 -2.4 27.7 82 -5 23 0
06:36 1020 30.12 849 25.07 -2.3 27.8 83 -4.9 23.2 0
06:37 1020 30.12 849 25.07 -2.3 27.8 83 -4.8 23.4 0
06:38 1020 30.12 849 25.07 -2.3 27.9 83 -4.8 23.3 0
06:39 1020 30.12 849 25.07 -2.3 27.9 82 -4.9 23.1 0
06:40 1020 30.12 849 25.07 -2.2 28 81 -5.1 22.9 0
06:41 1020 30.12 849 25.07 -2.3 27.9 81 -5.1 22.8 0
06:42 1020 30.12 849 25.07 -2.3 27.9 80 -5.2 22.7 0
06:43 1020 30.12 849 25.07 -2.3 27.9 80 -5.2 22.6 0
06:44 1020 30.12 849 25.07 -2.3 27.9 80 -5.2 22.6 0
06:45 1020 30.12 849 25.07 -2.2 28 80 -5.2 22.6 0
06:46 1020 30.12 849 25.07 -2.2 28 80 -5.3 22.5 0
06:47 1020 30.12 849 25.07 -2.2 28.1 79 -5.3 22.4 0
06:48 1020 30.12 849 25.07 -2.2 28.1 79 -5.3 22.4 0
06:49 1020 30.12 849 25.07 -2.2 28.1 79 -5.3 22.5 0
06:50 1020 30.12 849 25.07 -2.2 28.1 79 -5.3 22.4 0
06:51 1020 30.12 849 25.07 -2.2 28 79 -5.4 22.3 0
06:52 1020 30.12 849 25.07 -2.2 28 79 -5.4 22.2 0
06:53 1020 30.12 849 25.07 -2.2 28 78 -5.5 22.1 0
06:54 1020 30.12 849 25.07 -2.2 28.1 78 -5.5 22.1 0
06:55 1020 30.12 849 25.07 -2.2 28.1 78 -5.5 22.1 0
06:56 1020 30.12 849 25.07 -2.2 28 78 -5.6 22 0
06:57 1020 30.12 849 25.07 -2.2 28.1 78 -5.5 22.1 0
06:58 1020 30.12 849 25.07 -2.2 28 78 -5.5 22 0
06:59 1020 30.12 849 25.07 -2.2 28 78 -5.5 22 0
07:00 1020 30.12 849 25.07 -2.3 27.8 79 -5.6 22 0
07:01 1020 30.12 849 25.07 -2.5 27.6 79 -5.6 21.9 0
07:02 1020 30.12 849 25.07 -2.6 27.4 80 -5.6 21.8 0
07:03 1020 30.12 849 25.07 -2.6 27.3 80 -5.6 21.8 0
07:04 1020 30.12 849 25.07 -2.6 27.4 80 -5.6 21.9 0
07:05 1020 30.12 849 25.07 -2.6 27.4 80 -5.6 21.9 0
07:06 1020 30.12 849 25.07 -2.6 27.4 80 -5.5 22 0
07:07 1020 30.12 849 25.07 -2.6 27.3 80 -5.6 21.9 0
07:08 1020 30.12 849 25.07 -2.6 27.3 80 -5.6 22 0
07:09 1020 30.12 849 25.07 -2.7 27.2 80 -5.6 21.8 0
07:10 1020 30.12 849 25.07 -2.7 27.2 80 -5.6 21.9 0
07:11 1020 30.12 849 25.07 -2.7 27.1 81 -5.6 21.9 0
07:12 1020 30.12 849 25.07 -2.8 27 80 -5.7 21.8 0
07:13 1020 30.12 849 25.07 -2.7 27.1 80 -5.6 21.8 0
07:14 1020 30.12 849 25.07 -2.8 27 80 -5.7 21.8 0
07:15 1020 30.12 849 25.07 -2.8 27 80 -5.7 21.7 0
07:16 1020 30.12 849 25.07 -2.8 26.9 81 -5.7 21.7 0
07:17 1020 30.12 849 25.07 -2.8 26.9 81 -5.7 21.8 0
07:18 1020 30.12 850 25.1 -2.8 26.9 81 -5.7 21.7 0
07:19 1020 30.12 850 25.1 -2.7 27.1 80 -5.7 21.8 0
07:20 1020 30.12 850 25.1 -2.7 27.2 80 -5.6 21.9 0
07:21 1020 30.12 850 25.1 -2.6 27.3 80 -5.6 22 0
07:22 1020 30.12 850 25.1 -2.6 27.4 80 -5.6 21.9 0
07:23 1020 30.12 850 25.1 -2.5 27.5 80 -5.6 22 0
07:24 1020 30.12 850 25.1 -2.5 27.5 80 -5.6 22 0
07:25 1020 30.12 850 25.1 -2.5 27.5 79 -5.6 21.9 0
07:26 1021 30.15 850 25.1 -2.4 27.6 79 -5.6 21.9 0
07:27 1021 30.15 850 25.1 -2.3 27.8 78 -5.6 21.9 0
07:28 1021 30.15 850 25.1 -2.2 28 78 -5.5 22.1 0
07:29 1021 30.15 850 25.1 -2.2 28.1 78 -5.5 22.1 0
07:30 1021 30.15 850 25.1 -2.2 28.1 78 -5.4 22.2 0
07:31 1021 30.15 850 25.1 -2.2 28.1 78 -5.4 22.2 0
07:32 1021 30.15 850 25.1 -2.2 28 79 -5.4 22.2 0
07:33 1021 30.15 850 25.1 -2.2 28 79 -5.4 22.2 0
07:34 1021 30.15 850 25.1 -2.3 27.9 79 -5.4 22.3 0
07:35 1021 30.15 850 25.1 -2.3 27.9 79 -5.4 22.3 0
07:36 1021 30.15 850 25.1 -2.2 28 79 -5.4 22.3 0
07:37 1021 30.15 850 25.1 -2.2 28 79 -5.3 22.4 0
07:38 1021 30.15 850 25.1 -2.3 27.9 80 -5.3 22.4 0
07:39 1021 30.15 850 25.1 -2.3 27.9 80 -5.3 22.4 0
07:40 1021 30.15 850 25.1 -2.3 27.8 80 -5.3 22.4 0
07:41 1021 30.15 850 25.1 -2.3 27.8 80 -5.3 22.4 0
07:42 1021 30.15 850 25.1 -2.4 27.7 80 -5.3 22.4 0
07:43 1021 30.15 850 25.1 -2.4 27.8 80 -5.3 22.5 0
07:44 1021 30.15 850 25.1 -2.4 27.8 80 -5.3 22.4 0
07:45 1021 30.15 850 25.1 -2.3 27.8 80 -5.3 22.4 0
07:46 1021 30.15 850 25.1 -2.3 27.8 80 -5.3 22.5 0
07:47 1021 30.15 850 25.1 -2.3 27.9 80 -5.3 22.5 0
07:48 1021 30.15 850 25.1 -2.3 27.9 80 -5.3 22.5 0
07:49 1021 30.15 850 25.1 -2.3 27.8 80 -5.4 22.3 0
07:50 1021 30.15 850 25.1 -2.3 27.8 80 -5.3 22.4 0
07:51 1021 30.15 850 25.1 -2.3 27.8 80 -5.4 22.3 0
07:52 1021 30.15 850 25.1 -2.3 27.8 80 -5.4 22.3 0
07:53 1021 30.15 850 25.1 -2.3 27.8 80 -5.4 22.3 0
07:54 1021 30.15 850 25.1 -2.3 27.8 79 -5.4 22.2 0
07:55 1021 30.15 850 25.1 -2.3 27.8 79 -5.4 22.3 0
07:56 1021 30.15 850 25.1 -2.3 27.8 80 -5.4 22.3 0
07:57 1021 30.15 850 25.1 -2.4 27.7 80 -5.4 22.3 0
07:58 1021 30.15 850 25.1 -2.4 27.6 80 -5.4 22.3 0
07:59 1021 30.15 850 25.1 -2.5 27.5 80 -5.4 22.2 0
08:00 1021 30.15 850 25.1 -2.5 27.4 80 -5.5 22.2 0
08:01 1021 30.15 850 25.1 -2.6 27.4 81 -5.4 22.2 0
08:02 1021 30.15 850 25.1 -2.6 27.3 81 -5.4 22.2 0
08:03 1021 30.15 850 25.1 -2.7 27.2 81 -5.4 22.2 0
08:04 1021 30.15 850 25.1 -2.7 27.2 81 -5.5 22.1 0
08:05 1021 30.15 850 25.1 -2.7 27.1 81 -5.6 21.9 0
08:06 1021 30.15 850 25.1 -2.7 27.2 81 -5.5 22.1 0
08:07 1021 30.15 850 25.1 -2.7 27.2 81 -5.5 22.1 0
08:08 1021 30.15 850 25.1 -2.7 27.1 80 -5.6 21.9 0
08:09 1021 30.15 850 25.1 -2.7 27.1 80 -5.6 21.9 0
08:10 1021 30.15 850 25.1 -2.7 27.2 80 -5.6 21.8 0
08:11 1021 30.15 850 25.1 -2.6 27.2 80 -5.7 21.8 0
08:12 1021 30.15 850 25.1 -2.6 27.3 80 -5.6 21.8 0
08:13 1021 30.15 850 25.1 -2.6 27.3 80 -5.7 21.8 0
08:14 1021 30.15 850 25.1 -2.6 27.3 79 -5.7 21.8 0
08:15 1021 30.15 850 25.1 -2.6 27.4 80 -5.6 21.9 0
08:16 1021 30.15 850 25.1 -2.6 27.4 80 -5.6 21.8 0
08:17 1021 30.15 850 25.1 -2.6 27.3 80 -5.7 21.8 0
08:18 1021 30.15 851 25.13 -2.5 27.5 80 -5.5 22 0
08:19 1021 30.15 851 25.13 -2.6 27.4 79 -5.7 21.8 0
08:20 1021 30.15 851 25.13 -2.5 27.4 80 -5.6 21.9 0
08:21 1021 30.15 851 25.13 -2.5 27.5 79 -5.6 21.9 0
08:22 1021 30.15 851 25.13 -2.5 27.5 79 -5.6 21.9 0
08:23 1021 30.15 851 25.13 -2.5 27.5 79 -5.7 21.8 0
08:24 1022 30.18 851 25.13 -2.4 27.6 78 -5.7 21.8 0
08:25 1022 30.18 851 25.13 -2.4 27.6 78 -5.8 21.6 0
08:26 1022 30.18 851 25.13 -2.4 27.8 78 -5.7 21.7 0
08:27 1022 30.18 851 25.13 -2.3 27.8 78 -5.7 21.7 0
08:28 1022 30.18 851 25.13 -2.4 27.8 77 -5.8 21.5 0
08:29 1021 30.15 851 25.13 -2.3 27.9 77 -5.8 21.5 0
08:30 1021 30.15 851 25.13 -2.3 27.9 77 -5.7 21.7 0
08:31 1022 30.18 851 25.13 -2.3 27.9 77 -5.7 21.7 0
08:32 1022 30.18 851 25.13 -2.3 27.9 77 -5.7 21.7 0
08:33 1022 30.18 851 25.13 -2.3 27.9 77 -5.7 21.7 0
08:34 1022 30.18 851 25.13 -2.2 28 78 -5.6 21.9 0
08:35 1022 30.18 851 25.13 -2.2 28 78 -5.6 21.9 0
08:36 1022 30.18 851 25.13 -2.2 28 77 -5.6 21.9 0
08:37 1022 30.18 851 25.13 -2.2 28.1 78 -5.6 21.9 0
08:38 1022 30.18 851 25.13 -2.2 28.1 78 -5.6 22 0
08:39 1022 30.18 851 25.13 -2.1 28.1 78 -5.5 22 0
08:40 1022 30.18 851 25.13 -2.2 28.1 77 -5.6 21.8 0
08:41 1022 30.18 851 25.13 -2.1 28.2 77 -5.6 21.9 0
08:42 1022 30.18 851 25.13 -2.1 28.2 77 -5.6 21.9 0
08:43 1022 30.18 851 25.13 -2.1 28.3 77 -5.5 22.1 0
08:44 1021 30.15 851 25.13 -2.1 28.2 77 -5.6 21.8 0
08:45 1021 30.15 851 25.13 -2.1 28.3 78 -5.5 22.2 0
08:46 1022 30.18 851 25.13 -2.1 28.1 77 -5.6 21.9 0
08:47 1022 30.18 851 25.13 -2.1 28.2 76 -5.8 21.6 0
08:48 1022 30.18 851 25.13 -2.1 28.3 76 -5.8 21.5 0
08:49 1022 30.18 851 25.13 -2 28.4 75 -5.8 21.6 0
08:50 1022 30.18 851 25.13 -2 28.4 75 -5.9 21.4 0
08:51 1022 30.18 851 25.13 -2 28.4 76 -5.8 21.6 0
08:52 1022 30.18 851 25.13 -1.9 28.5 74 -5.9 21.3 0
08:53 1022 30.18 851 25.13 -1.9 28.6 73 -6 21.1 0
08:54 1022 30.18 851 25.13 -1.8 28.8 73 -5.9 21.3 0
08:55 1022 30.18 851 25.13 -1.7 28.9 74 -5.8 21.5 0
08:56 1022 30.18 851 25.13 -1.7 28.9 74 -5.7 21.7 0
08:57 1022 30.18 851 25.13 -1.7 28.9 74 -5.8 21.5 0
08:58 1022 30.18 851 25.13 -1.7 28.9 74 -5.8 21.6 0
08:59 1022 30.18 851 25.13 -1.8 28.8 74 -5.8 21.6 0
09:00 1022 30.18 851 25.13 -1.7 28.9 74 -5.8 21.6 0
09:01 1022 30.18 851 25.13 -1.8 28.8 74 -5.8 21.5 0
09:02 1022 30.18 851 25.13 -1.8 28.8 75 -5.7 21.8 0
09:03 1022 30.18 851 25.13 -1.8 28.7 75 -5.7 21.8 0
09:04 1022 30.18 851 25.13 -1.9 28.6 75 -5.7 21.8 0
09:05 1022 30.18 851 25.13 -1.9 28.5 76 -5.7 21.7 0
09:06 1022 30.18 851 25.13 -1.9 28.6 76 -5.6 21.9 0
09:07 1022 30.18 851 25.13 -2 28.4 76 -5.6 21.9 0
09:08 1022 30.18 851 25.13 -2 28.4 76 -5.6 21.9 0
09:09 1022 30.18 851 25.13 -2 28.3 77 -5.6 21.9 0
09:10 1022 30.18 851 25.13 -2 28.4 77 -5.5 22 0
09:11 1022 30.18 851 25.13 -2 28.4 78 -5.4 22.2 0
09:12 1022 30.18 851 25.13 -2 28.5 77 -5.4 22.3 0
09:13 1022 30.18 851 25.13 -1.9 28.5 78 -5.3 22.4 0
09:14 1022 30.18 851 25.13 -1.8 28.7 77 -5.3 22.5 0
09:15 1022 30.18 851 25.13 -1.8 28.7 77 -5.3 22.4 0
09:16 1022 30.18 851 25.13 -1.8 28.8 77 -5.3 22.5 0
09:17 1022 30.18 851 25.13 -1.7 28.9 77 -5.2 22.6 0
09:18 1022 30.18 851 25.13 -1.7 28.9 77 -5.2 22.6 0
09:19 1022 30.18 851 25.13 -1.7 29 77 -5.1 22.7 0
09:20 1022 30.18 851 25.13 -1.6 29.1 77 -5.1 22.9 0
09:21 1022 30.18 851 25.13 -1.6 29.1 77 -5.2 22.7 0
09:22 1022 30.18 851 25.13 -1.6 29.1 77 -5.1 22.7 0
09:23 1022 30.18 851 25.13 -1.6 29.1 78 -5 22.9 0
09:24 1022 30.18 851 25.13 -1.7 29 78 -5 23 0
09:25 1022 30.18 851 25.13 -1.7 28.9 79 -4.9 23.1 0
09:26 1022 30.18 851 25.13 -1.7 28.9 79 -4.9 23.2 0
09:27 1022 30.18 851 25.13 -1.7 28.9 79 -4.9 23.2 0
09:28 1022 30.18 851 25.13 -1.7 29 79 -4.9 23.1 0
09:29 1022 30.18 851 25.13 -1.6 29.1 79 -4.9 23.3 0
09:30 1022 30.18 851 25.13 -1.6 29.2 79 -4.8 23.4 0
09:31 1022 30.18 851 25.13 -1.6 29.2 79 -4.8 23.4 0
09:32 1022 30.18 851 25.13 -1.5 29.3 78 -4.8 23.3 0
09:33 1022 30.18 851 25.13 -1.5 29.4 78 -4.7 23.5 0
09:34 1022 30.18 851 25.13 -1.5 29.4 79 -4.7 23.5 0
09:35 1022 30.18 852 25.16 -1.5 29.4 79 -4.6 23.7 0
09:36 1022 30.18 852 25.16 -1.5 29.3 79 -4.7 23.5 0
09:37 1022 30.18 852 25.16 -1.4 29.4 79 -4.6 23.7 0
09:38 1022 30.18 852 25.16 -1.4 29.4 79 -4.5 23.8 0
09:39 1022 30.18 852 25.16 -1.5 29.4 80 -4.5 23.8 0
09:40 1022 30.18 852 25.16 -1.4 29.5 79 -4.6 23.7 0
09:41 1022 30.18 852 25.16 -1.4 29.5 78 -4.7 23.5 0
09:42 1022 30.18 852 25.16 -1.4 29.4 78 -4.7 23.5 0
09:43 1022 30.18 852 25.16 -1.5 29.3 78 -4.9 23.3 0
09:44 1023 30.21 852 25.16 -1.5 29.2 78 -4.8 23.3 0
09:45 1023 30.21 852 25.16 -1.5 29.2 77 -5 23 0
09:46 1023 30.21 852 25.16 -1.5 29.3 78 -4.9 23.2 0
09:47 1023 30.21 852 25.16 -1.5 29.4 78 -4.8 23.4 0
09:48 1023 30.21 852 25.16 -1.3 29.6 76 -5 23.1 0
09:49 1023 30.21 852 25.16 -1.4 29.6 76 -5.1 22.8 0
09:50 1023 30.21 852 25.16 -1.3 29.6 76 -5 23 0
09:51 1023 30.21 852 25.16 -1.3 29.7 76 -5 23 0
09:52 1023 30.21 852 25.16 -1.2 29.9 75 -5.1 22.9 0
09:53 1023 30.21 852 25.16 -1.1 30 75 -5 23 0
09:54 1023 30.21 852 25.16 -1.1 30 74 -5.1 22.9 0
09:55 1023 30.21 852 25.16 -1.1 30.1 75 -5 23 0
09:56 1023 30.21 852 25.16 -1 30.1 75 -4.9 23.2 0
09:57 1023 30.21 852 25.16 -1 30.1 75 -4.8 23.3 0
09:58 1023 30.21 852 25.16 -1.1 30 75 -5 23.1 0
09:59 1023 30.21 852 25.16 -1.2 29.9 76 -4.9 23.2 0
10:00 1023 30.21 852 25.16 -1.1 29.9 75 -4.9 23.1 0
10:01 1023 30.21 852 25.16 -1.2 29.8 77 -4.8 23.4 0
10:02 1023 30.21 852 25.16 -1.4 29.5 80 -4.3 24.2 0
10:03 1023 30.21 852 25.16 -1.5 29.3 84 -3.9 25 0
10:04 1023 30.21 852 25.16 -1.7 29 87 -3.6 25.5 0
10:05 1023 30.21 852 25.16 -1.9 28.6 88 -3.5 25.6 0
10:06 1023 30.21 852 25.16 -2 28.4 90 -3.5 25.8 0
10:07 1023 30.21 852 25.16 -2 28.3 89 -3.6 25.5 0
10:08 1023 30.21 852 25.16 -2.1 28.3 89 -3.6 25.5 0
10:09 1023 30.21 852 25.16 -2 28.3 89 -3.7 25.4 0
10:10 1023 30.21 852 25.16 -2 28.4 88 -3.7 25.3 0
10:11 1023 30.21 852 25.16 -1.9 28.5 88 -3.6 25.5 0
10:12 1023 30.21 852 25.16 -1.9 28.5 88 -3.7 25.3 0
10:13 1023 30.21 852 25.16 -1.9 28.6 88 -3.7 25.4 0
10:14 1023 30.21 852 25.16 -1.8 28.7 87 -3.7 25.4 0
10:15 1023 30.21 852 25.16 -1.8 28.7 87 -3.7 25.4 0
10:16 1023 30.21 852 25.16 -1.8 28.8 87 -3.7 25.3 0
10:17 1023 30.21 852 25.16 -1.8 28.8 87 -3.7 25.3 0
10:18 1023 30.21 852 25.16 -1.7 28.9 85 -3.9 25 0
10:19 1023 30.21 852 25.16 -1.7 28.9 86 -3.8 25.1 0
10:20 1023 30.21 852 25.16 -1.7 28.9 85 -3.9 25 0
10:21 1023 30.21 852 25.16 -1.7 29 85 -3.9 25 0
10:22 1023 30.21 852 25.16 -1.6 29 84 -4 24.9 0
10:23 1023 30.21 852 25.16 -1.6 29 84 -4 24.8 0
10:24 1023 30.21 852 25.16 -1.6 29 83 -4.1 24.6 0
10:25 1023 30.21 852 25.16 -1.6 29.1 83 -4.1 24.6 0
10:26 1023 30.21 852 25.16 -1.6 29.1 83 -4.2 24.4 0
10:27 1023 30.21 852 25.16 -1.6 29.1 82 -4.2 24.4 0
10:28 1023 30.21 852 25.16 -1.5 29.3 83 -4.1 24.6 0
10:29 1023 30.21 852 25.16 -1.5 29.3 81 -4.3 24.3 0
10:30 1023 30.21 852 25.16 -1.4 29.4 81 -4.2 24.4 0
10:31 1023 30.21 852 25.16 -1.4 29.5 82 -4.1 24.6 0
10:32 1023 30.21 852 25.16 -1.4 29.5 80 -4.3 24.2 0
10:33 1023 30.21 852 25.16 -1.3 29.6 80 -4.3 24.2 0
10:34 1023 30.21 852 25.16 -1.3 29.7 80 -4.4 24.1 0
10:35 1023 30.21 852 25.16 -1.3 29.7 79 -4.5 23.8 0
10:36 1023 30.21 852 25.16 -1.2 29.8 78 -4.6 23.7 0
10:37 1023 30.21 852 25.16 -1.2 29.8 76 -5 23 0
10:38 1023 30.21 852 25.16 -1.2 29.9 77 -4.8 23.4 0
10:39 1023 30.21 852 25.16 -1.1 30 74 -5.2 22.7 0
10:40 1023 30.21 852 25.16 -1.1 30 73 -5.3 22.5 0
10:41 1023 30.21 852 25.16 -1.1 30 74 -5.1 22.8 0
10:42 1023 30.21 852 25.16 -1.1 29.9 74 -5.2 22.6 0
10:43 1023 30.21 852 25.16 -1.2 29.9 76 -4.9 23.1 0
10:44 1023 30.21 852 25.16 -1.3 29.7 74 -5.3 22.4 0
10:45 1023 30.21 852 25.16 -1.3 29.7 73 -5.4 22.2 0
10:46 1023 30.21 852 25.16 -1.2 29.8 73 -5.6 22 0
10:47 1023 30.21 852 25.16 -1.2 29.9 73 -5.3 22.4 0
10:48 1023 30.21 852 25.16 -1.1 30 71 -5.8 21.6 0
10:49 1023 30.21 852 25.16 -1 30.3 70 -5.7 21.7 0
10:50 1023 30.21 852 25.16 -0.9 30.5 71 -5.5 22.1 0
10:51 1023 30.21 852 25.16 -0.8 30.5 70 -5.6 21.9 0
10:52 1023 30.21 852 25.16 -0.8 30.6 69 -5.7 21.7 0
10:53 1023 30.21 852 25.16 -0.7 30.7 70 -5.6 22 0
10:54 1023 30.21 852 25.16 -0.7 30.7 67 -6 21.2 0
10:55 1023 30.21 852 25.16 -0.7 30.8 66 -6.2 20.9 0
10:56 1023 30.21 852 25.16 -0.7 30.8 68 -5.8 21.6 0
10:57 1023 30.21 852 25.16 -0.6 30.8 70 -5.5 22 0
10:58 1023 30.21 852 25.16 -0.7 30.8 70 -5.4 22.2 0
10:59 1023 30.21 852 25.16 -0.7 30.8 71 -5.4 22.3 0
11:00 1023 30.21 852 25.16 -0.7 30.8 71 -5.2 22.6 0
11:01 1023 30.21 852 25.16 -0.7 30.7 74 -4.9 23.2 0
11:02 1023 30.21 852 25.16 -0.8 30.6 73 -5.1 22.8 0
11:03 1023 30.21 852 25.16 -0.8 30.6 71 -5.3 22.4 0
11:04 1023 30.21 852 25.16 -0.8 30.5 72 -5.4 22.4 0
11:05 1023 30.21 852 25.16 -0.8 30.5 74 -5 23.1 0
11:06 1023 30.21 852 25.16 -0.8 30.5 74 -4.9 23.1 0
11:07 1023 30.21 852 25.16 -0.9 30.4 75 -4.9 23.3 0
11:08 1023 30.21 852 25.16 -0.9 30.4 76 -4.7 23.6 0
11:09 1023 30.21 852 25.16 -1 30.2 76 -4.7 23.5 0
11:10 1023 30.21 852 25.16 -1 30.2 75 -4.8 23.3 0
11:11 1023 30.21 852 25.16 -1 30.1 76 -4.8 23.4 0
11:12 1023 30.21 852 25.16 -1.1 30.1 75 -5 23.1 0
11:13 1023 30.21 852 25.16 -1.1 30.1 76 -4.9 23.2 0
11:14 1023 30.21 852 25.16 -1.1 29.9 76 -4.9 23.2 0
11:15 1023 30.21 852 25.16 -1.2 29.8 76 -5 23 0
11:16 1023 30.21 852 25.16 -1.2 29.8 76 -4.9 23.2 0
11:17 1023 30.21 852 25.16 -1.3 29.7 76 -4.9 23.1 0
11:18 1023 30.21 853 25.19 -1.3 29.7 77 -4.9 23.2 0
11:19 1023 30.21 853 25.19 -1.3 29.7 77 -4.9 23.2 0
11:20 1023 30.21 853 25.19 -1.2 29.8 77 -4.8 23.4 0
11:21 1023 30.21 853 25.19 -1.2 29.9 77 -4.7 23.5 0
11:22 1023 30.21 853 25.19 -1.2 29.8 77 -4.7 23.5 0
11:23 1023 30.21 853 25.19 -1.1 29.9 77 -4.6 23.7 0
11:24 1023 30.21 853 25.19 -1.1 30 77 -4.7 23.6 0
11:25 1023 30.21 853 25.19 -1.1 30 77 -4.6 23.7 0
11:26 1023 30.21 853 25.19 -1.1 30.1 77 -4.6 23.7 0
11:27 1023 30.21 853 25.19 -1.1 30 78 -4.5 23.8 0
11:28 1023 30.21 853 25.19 -1.1 30 78 -4.5 24 0
11:29 1023 30.21 853 25.19 -1.1 30 78 -4.5 23.9 0
11:30 1023 30.21 853 25.19 -1.1 30 78 -4.5 23.9 0
11:31 1023 30.21 853 25.19 -1 30.1 77 -4.6 23.7 0
11:32 1023 30.21 853 25.19 -1 30.2 78 -4.4 24 0
11:33 1023 30.21 853 25.19 -1 30.3 78 -4.4 24.1 0
11:34 1023 30.21 853 25.19 -0.9 30.3 78 -4.3 24.2 0
11:35 1023 30.21 853 25.19 -0.9 30.4 77 -4.4 24.1 0
11:36 1023 30.21 853 25.19 -0.9 30.5 78 -4.3 24.3 0
11:37 1023 30.21 853 25.19 -0.8 30.6 76 -4.5 24 0
11:38 1023 30.21 853 25.19 -0.7 30.7 75 -4.6 23.8 0
11:39 1023 30.21 853 25.19 -0.7 30.8 75 -4.5 23.9 0
11:40 1023 30.21 853 25.19 -0.7 30.8 75 -4.6 23.7 0
11:41 1023 30.21 853 25.19 -0.7 30.8 75 -4.5 23.9 0
11:42 1023 30.21 853 25.19 -0.7 30.8 75 -4.6 23.8 0
11:43 1023 30.21 853 25.19 -0.7 30.8 75 -4.6 23.8 0
11:44 1023 30.21 853 25.19 -0.7 30.8 76 -4.4 24.2 0
11:45 1023 30.21 853 25.19 -0.6 30.9 75 -4.5 23.9 0
11:46 1023 30.21 853 25.19 -0.6 30.9 76 -4.3 24.3 0
11:47 1023 30.21 853 25.19 -0.6 31 76 -4.2 24.4 0
11:48 1023 30.21 853 25.19 -0.5 31 76 -4.2 24.4 0
11:49 1023 30.21 853 25.19 -0.5 31 77 -4.2 24.5 0
11:50 1023 30.21 853 25.19 -0.6 31 77 -4.1 24.6 0
11:51 1023 30.21 853 25.19 -0.6 31 76 -4.3 24.3 0
11:52 1023 30.21 853 25.19 -0.5 31.1 77 -4.1 24.6 0
11:53 1023 30.21 853 25.19 -0.4 31.3 76 -4.1 24.6 0
11:54 1023 30.21 853 25.19 -0.2 31.6 74 -4.3 24.3 0
11:55 1023 30.21 852 25.16 -0.1 31.8 74 -4.2 24.4 0
11:56 1023 30.21 852 25.16 -0.1 31.8 73 -4.4 24.2 0
11:57 1023 30.21 852 25.16 -0.2 31.6 75 -4.1 24.6 0
11:58 1023 30.21 852 25.16 -0.3 31.5 75 -4.2 24.4 0
11:59 1023 30.21 852 25.16 -0.4 31.2 74 -4.4 24 0
12:00 1023 30.21 852 25.16 -0.5 31.1 74 -4.5 23.9 0
12:01 1023 30.21 852 25.16 -0.4 31.3 74 -4.4 24.1 0
12:02 1023 30.21 852 25.16 -0.4 31.3 74 -4.4 24 0
12:03 1023 30.21 852 25.16 -0.3 31.4 74 -4.4 24.1 0
12:04 1023 30.21 852 25.16 -0.2 31.6 73 -4.4 24.1 0
12:05 1023 30.21 852 25.16 -0.1 31.9 73 -4.3 24.2 0
12:06 1023 30.21 852 25.16 0.1 32.1 73 -4.3 24.3 0
12:07 1023 30.21 852 25.16 0.1 32.3 71 -4.5 23.9 0
12:08 1023 30.21 852 25.16 0.3 32.5 71 -4.4 24.1 0
12:09 1023 30.21 852 25.16 0.4 32.7 69 -4.6 23.8 0
12:10 1023 30.21 852 25.16 0.4 32.8 70 -4.5 23.9 0
12:11 1023 30.21 852 25.16 0.5 32.9 71 -4.1 24.5 0
12:12 1023 30.21 852 25.16 0.5 33 69 -4.5 23.9 0
12:13 1023 30.21 852 25.16 0.5 33 70 -4.4 24.1 0
12:14 1023 30.21 852 25.16 0.6 33 70 -4.4 24.2 0
12:15 1023 30.21 852 25.16 0.6 33 67 -4.8 23.4 0
12:16 1023 30.21 852 25.16 0.6 33 68 -4.7 23.6 0
12:17 1023 30.21 852 25.16 0.5 33 67 -4.9 23.2 0
12:18 1023 30.21 852 25.16 0.5 32.9 68 -4.6 23.7 0
12:19 1023 30.21 852 25.16 0.5 32.9 70 -4.3 24.2 0
12:20 1023 30.21 852 25.16 0.5 32.9 68 -4.8 23.3 0
12:21 1023 30.21 852 25.16 0.5 32.9 67 -5 23 0
12:22 1023 30.21 852 25.16 0.4 32.7 67 -5 23 0
12:23 1023 30.21 852 25.16 0.4 32.7 66 -5.1 22.7 0
12:24 1023 30.21 852 25.16 0.4 32.7 66 -5.2 22.6 0
12:25 1023 30.21 852 25.16 0.4 32.8 66 -5.2 22.7 0
12:26 1023 30.21 852 25.16 0.5 32.9 67 -5 23 0
12:27 1023 30.21 852 25.16 0.5 32.9 66 -5.2 22.7 0
12:28 1023 30.21 852 25.16 0.5 32.8 66 -5.2 22.6 0
12:29 1023 30.21 852 25.16 0.5 32.9 67 -5 23 0
12:30 1023 30.21 852 25.16 0.5 32.9 64 -5.5 22.1 0
12:31 1023 30.21 852 25.16 0.5 32.9 66 -5.1 22.8 0
12:32 1023 30.21 852 25.16 0.5 32.8 66 -5.2 22.6 0
12:33 1023 30.21 852 25.16 0.5 32.9 64 -5.5 22.1 0
12:34 1023 30.21 852 25.16 0.5 33 66 -5.1 22.8 0
12:35 1023 30.21 852 25.16 0.6 33 65 -5.2 22.6 0
12:36 1023 30.21 852 25.16 0.6 33.1 68 -4.6 23.7 0
12:37 1023 30.21 852 25.16 0.6 33 67 -4.8 23.3 0
12:38 1023 30.21 852 25.16 0.5 33 66 -5 22.9 0
12:39 1023 30.21 852 25.16 0.6 33.1 68 -4.7 23.6 0
12:40 1023 30.21 852 25.16 0.6 33.1 66 -5 23 0
12:41 1023 30.21 852 25.16 0.6 33 67 -4.9 23.3 0
12:42 1023 30.21 852 25.16 0.6 33 66 -5 23 0
12:43 1023 30.21 852 25.16 0.5 32.9 68 -4.8 23.4 0
12:44 1023 30.21 852 25.16 0.6 33 68 -4.8 23.4 0
12:45 1023 30.21 852 25.16 0.6 33.1 66 -5 22.9 0
12:46 1023 30.21 852 25.16 0.7 33.2 68 -4.5 23.8 0
12:47 1023 30.21 852 25.16 0.7 33.2 66 -5 23.1 0
12:48 1023 30.21 852 25.16 0.7 33.2 67 -4.8 23.3 0
12:49 1023 30.21 852 25.16 0.7 33.2 67 -4.8 23.4 0
12:50 1023 30.21 852 25.16 0.7 33.3 67 -4.8 23.4 0
12:51 1023 30.21 852 25.16 0.8 33.4 64 -5.3 22.4 0
12:52 1023 30.21 852 25.16 0.8 33.5 65 -5.1 22.8 0
12:53 1023 30.21 852 25.16 0.8 33.5 63 -5.4 22.3 0
12:54 1023 30.21 852 25.16 0.8 33.4 62 -5.6 21.9 0
12:55 1023 30.21 852 25.16 0.8 33.5 60 -6 21.2 0
12:56 1023 30.21 852 25.16 0.8 33.5 62 -5.6 22 0
12:57 1023 30.21 852 25.16 0.8 33.4 62 -5.6 22 0
12:58 1023 30.21 852 25.16 0.8 33.4 64 -5.3 22.5 0
12:59 1023 30.21 852 25.16 0.8 33.4 65 -5.1 22.8 0
13:00 1023 30.21 852 25.16 0.8 33.4 65 -5 23 0
13:01 1023 30.21 852 25.16 0.8 33.4 62 -5.7 21.7 0
13:02 1023 30.21 852 25.16 0.8 33.5 63 -5.5 22.1 0
13:03 1023 30.21 852 25.16 0.9 33.5 61 -5.8 21.5 0
13:04 1022 30.18 852 25.16 0.9 33.6 59 -6.2 20.8 0
13:05 1022 30.18 852 25.16 0.8 33.5 61 -5.9 21.3 0
13:06 1022 30.18 852 25.16 0.7 33.3 63 -5.6 21.9 0
13:07 1022 30.18 852 25.16 0.8 33.4 63 -5.4 22.3 0
13:08 1022 30.18 852 25.16 0.8 33.4 63 -5.6 22 0
13:09 1022 30.18 852 25.16 0.8 33.5 61 -5.8 21.6 0
13:10 1022 30.18 852 25.16 1 33.7 62 -5.6 21.9 0
13:11 1022 30.18 852 25.16 1.1 33.9 63 -5.3 22.5 0
13:12 1022 30.18 852 25.16 1.1 34 63 -5.1 22.7 0
13:13 1022 30.18 852 25.16 1.3 34.3 62 -5.3 22.5 0
13:14 1022 30.18 852 25.16 1.4 34.5 62 -5 23 0
13:15 1022 30.18 852 25.16 1.4 34.6 61 -5.2 22.6 0
13:16 1022 30.18 852 25.16 1.4 34.5 62 -5.1 22.9 0
13:17 1022 30.18 852 25.16 1.4 34.5 62 -5.1 22.9 0
13:18 1022 30.18 852 25.16 1.3 34.4 62 -5.3 22.5 0
13:19 1022 30.18 852 25.16 1.3 34.3 62 -5.2 22.7 0
13:20 1022 30.18 852 25.16 1.3 34.3 63 -5 22.9 0
13:21 1022 30.18 851 25.13 1.2 34.2 62 -5.3 22.4 0
13:22 1022 30.18 852 25.16 1.2 34.1 61 -5.4 22.3 0
13:23 1022 30.18 852 25.16 1.2 34.2 60 -5.6 21.9 0
13:24 1022 30.18 851 25.13 1.3 34.3 63 -5.1 22.8 0
13:25 1022 30.18 851 25.13 1.3 34.3 59 -5.7 21.7 0
13:26 1022 30.18 851 25.13 1.2 34.2 60 -5.6 21.9 0
13:27 1022 30.18 851 25.13 1.3 34.3 61 -5.5 22.2 0
13:28 1022 30.18 851 25.13 1.2 34.2 61 -5.5 22 0
13:29 1022 30.18 851 25.13 1.2 34.2 61 -5.6 22 0
13:30 1022 30.18 851 25.13 1.2 34.2 62 -5.2 22.6 0
13:31 1022 30.18 851 25.13 1.2 34.1 62 -5.4 22.4 0
13:32 1022 30.18 851 25.13 1.2 34.1 62 -5.4 22.3 0
13:33 1022 30.18 851 25.13 1.3 34.3 62 -5.3 22.5 0
13:34 1022 30.18 851 25.13 1.3 34.3 60 -5.7 21.8 0
13:35 1022 30.18 851 25.13 1.3 34.4 60 -5.6 21.9 0
13:36 1022 30.18 851 25.13 1.3 34.4 58 -6.1 21.1 0
13:37 1022 30.18 851 25.13 1.3 34.4 57 -6.3 20.7 0
13:38 1022 30.18 851 25.13 1.4 34.6 57 -6.1 21.1 0
13:39 1022 30.18 851 25.13 1.5 34.7 57 -6.1 20.9 0
13:40 1022 30.18 851 25.13 1.5 34.7 61 -5.2 22.6 0
13:41 1022 30.18 851 25.13 1.5 34.8 59 -5.6 21.9 0
13:42 1022 30.18 851 25.13 1.5 34.7 61 -5.3 22.5 0
13:43 1022 30.18 851 25.13 1.5 34.6 61 -5.3 22.5 0
13:44 1022 30.18 851 25.13 1.4 34.5 59 -5.7 21.7 0
13:45 1022 30.18 851 25.13 1.3 34.4 58 -6.1 21.1 0
13:46 1022 30.18 851 25.13 1.4 34.5 56 -6.3 20.6 0
13:47 1022 30.18 851 25.13 1.5 34.6 59 -5.7 21.7 0
13:48 1022 30.18 851 25.13 1.5 34.7 55 -6.5 20.3 0
13:49 1022 30.18 851 25.13 1.6 34.9 59 -5.6 22 0
13:50 1022 30.18 851 25.13 1.8 35.2 59 -5.3 22.4 0
13:51 1022 30.18 851 25.13 1.8 35.2 57 -5.8 21.5 0
13:52 1022 30.18 851 25.13 1.7 35.1 57 -5.8 21.5 0
13:53 1022 30.18 851 25.13 1.6 34.9 58 -5.7 21.8 0
13:54 1022 30.18 851 25.13 1.7 35 57 -6 21.3 0
13:55 1022 30.18 851 25.13 1.8 35.2 57 -5.8 21.6 0
13:56 1022 30.18 851 25.13 1.8 35.3 59 -5.4 22.3 0
13:57 1022 30.18 851 25.13 1.8 35.3 58 -5.5 22.1 0
13:58 1022 30.18 851 25.13 1.9 35.4 58 -5.4 22.2 0
13:59 1022 30.18 851 25.13 1.9 35.4 57 -5.7 21.7 0
14:00 1022 30.18 851 25.13 1.9 35.5 58 -5.5 22.1 0
14:01 1022 30.18 851 25.13 1.9 35.5 57 -5.6 21.8 0
14:02 1022 30.18 851 25.13 1.9 35.5 57 -5.7 21.7 0
14:03 1022 30.18 851 25.13 1.9 35.4 58 -5.5 22.2 0
14:04 1022 30.18 851 25.13 1.9 35.4 60 -5.1 22.8 0
14:05 1022 30.18 851 25.13 1.8 35.3 60 -5.1 22.9 0
14:06 1022 30.18 851 25.13 1.8 35.2 61 -5 23.1 0
14:07 1022 30.18 851 25.13 1.8 35.2 63 -4.4 24.1 0
14:08 1022 30.18 851 25.13 1.7 35 62 -4.8 23.4 0
14:09 1022 30.18 851 25.13 1.6 34.9 61 -5.1 22.8 0
14:10 1022 30.18 851 25.13 1.5 34.7 62 -5.1 22.8 0
14:11 1022 30.18 851 25.13 1.5 34.6 60 -5.5 22.2 0
14:12 1022 30.18 851 25.13 1.5 34.6 61 -5.3 22.4 0
14:13 1022 30.18 851 25.13 1.5 34.7 61 -5.3 22.5 0
14:14 1022 30.18 851 25.13 1.5 34.7 61 -5.1 22.8 0
14:15 1022 30.18 851 25.13 1.5 34.7 62 -5.1 22.8 0
14:16 1022 30.18 851 25.13 1.5 34.7 61 -5.1 22.8 0
14:17 1022 30.18 851 25.13 1.6 34.8 59 -5.5 22 0
14:18 1022 30.18 851 25.13 1.6 34.9 60 -5.3 22.4 0
14:19 1022 30.18 851 25.13 1.7 35 59 -5.5 22.2 0
14:20 1022 30.18 851 25.13 1.7 35.1 59 -5.5 22.2 0
14:21 1022 30.18 851 25.13 1.8 35.3 58 -5.7 21.8 0
14:22 1022 30.18 851 25.13 1.9 35.5 56 -5.8 21.5 0
14:23 1022 30.18 851 25.13 2 35.7 54 -6.3 20.6 0
14:24 1022 30.18 851 25.13 2.1 35.8 55 -6.1 21.1 0
14:25 1022 30.18 851 25.13 2.1 35.9 55 -6 21.3 0
14:26 1022 30.18 851 25.13 2.2 36 54 -6.1 21.1 0
14:27 1022 30.18 851 25.13 2.2 36 54 -6 21.1 0
14:28 1022 30.18 851 25.13 2.2 35.9 55 -5.9 21.3 0
14:29 1022 30.18 851 25.13 2.1 35.8 55 -6 21.1 0
14:30 1022 30.18 851 25.13 2 35.5 57 -5.7 21.7 0
14:31 1022 30.18 851 25.13 2 35.6 57 -5.6 22 0
14:32 1022 30.18 851 25.13 2 35.6 55 -6.2 20.9 0
14:33 1022 30.18 851 25.13 2 35.6 55 -6.2 20.9 0
14:34 1022 30.18 851 25.13 1.9 35.5 56 -5.9 21.4 0
14:35 1022 30.18 851 25.13 1.9 35.5 54 -6.5 20.3 0
14:36 1022 30.18 851 25.13 2 35.6 53 -6.5 20.3 0
14:37 1022 30.18 851 25.13 2 35.5 51 -7.2 19.1 0
14:38 1022 30.18 851 25.13 2 35.6 51 -7.2 19.1 0
14:39 1022 30.18 851 25.13 2 35.7 52 -6.9 19.6 0
14:40 1022 30.18 851 25.13 2 35.6 51 -7.1 19.3 0
14:41 1022 30.18 851 25.13 1.9 35.5 52 -7 19.4 0
14:42 1022 30.18 851 25.13 2 35.5 53 -6.6 20 0
14:43 1022 30.18 851 25.13 1.9 35.4 52 -7 19.3 0
14:44 1022 30.18 851 25.13 1.9 35.4 53 -6.6 20.1 0
14:45 1022 30.18 851 25.13 1.8 35.3 47 -8.3 17 0
14:46 1022 30.18 851 25.13 1.9 35.4 47 -8.4 16.9 0
14:47 1021 30.15 851 25.13 1.9 35.5 48 -8 17.6 0
14:48 1021 30.15 851 25.13 1.9 35.4 51 -7.3 18.9 0
14:49 1021 30.15 851 25.13 1.9 35.4 51 -7.3 18.8 0
14:50 1021 30.15 851 25.13 1.8 35.3 51 -7.2 19.1 0
14:51 1021 30.15 851 25.13 1.9 35.4 49 -7.8 17.9 0
14:52 1021 30.15 851 25.13 1.9 35.4 48 -8 17.6 0
14:53 1021 30.15 851 25.13 1.9 35.4 49 -7.6 18.3 0
14:54 1021 30.15 851 25.13 1.9 35.5 46 -8.4 16.9 0
14:55 1021 30.15 851 25.13 1.9 35.4 51 -7.1 19.3 0
14:56 1021 30.15 851 25.13 1.9 35.5 47 -8.3 17.1 0
14:57 1021 30.15 851 25.13 1.9 35.5 50 -7.4 18.6 0
14:58 1021 30.15 851 25.13 1.9 35.4 52 -6.9 19.6 0
14:59 1021 30.15 851 25.13 1.8 35.3 51 -7.3 18.9 0
15:00 1021 30.15 851 25.13 1.7 35.1 53 -6.8 19.8 0
15:01 1021 30.15 851 25.13 1.7 35 52 -7.2 19 0
15:02 1021 30.15 851 25.13 1.6 35 53 -7 19.5 0
15:03 1021 30.15 851 25.13 1.6 34.9 52 -7.1 19.2 0
15:04 1021 30.15 851 25.13 1.7 35 51 -7.4 18.8 0
15:05 1021 30.15 851 25.13 1.7 35 52 -7.1 19.2 0
15:06 1021 30.15 851 25.13 1.7 35.1 54 -6.6 20.1 0
15:07 1021 30.15 851 25.13 1.7 35.1 52 -7.2 19 0
15:08 1021 30.15 851 25.13 1.7 35 53 -7 19.3 0
15:09 1021 30.15 851 25.13 1.6 34.8 50 -7.8 17.9 0
15:10 1021 30.15 851 25.13 1.6 34.9 52 -7.3 18.9 0
15:11 1021 30.15 850 25.1 1.5 34.8 54 -6.9 19.7 0
15:12 1021 30.15 850 25.1 1.5 34.7 51 -7.5 18.5 0
15:13 1021 30.15 850 25.1 1.5 34.8 53 -7 19.5 0
15:14 1021 30.15 850 25.1 1.6 34.8 54 -6.8 19.7 0
15:15 1021 30.15 850 25.1 1.5 34.8 54 -6.8 19.7 0
15:16 1021 30.15 850 25.1 1.5 34.8 54 -6.7 19.9 0
15:17 1021 30.15 850 25.1 1.6 34.8 54 -6.8 19.8 0
15:18 1021 30.15 850 25.1 1.6 34.8 57 -6.1 21 0
15:19 1021 30.15 850 25.1 1.5 34.7 52 -7.3 18.8 0
15:20 1021 30.15 850 25.1 1.5 34.7 54 -6.8 19.7 0
15:21 1021 30.15 850 25.1 1.5 34.7 52 -7.3 18.8 0
15:22 1021 30.15 850 25.1 1.5 34.7 54 -6.7 19.9 0
15:23 1021 30.15 850 25.1 1.5 34.7 54 -6.9 19.6 0
15:24 1021 30.15 850 25.1 1.5 34.7 53 -7.1 19.1 0
15:25 1021 30.15 850 25.1 1.4 34.5 53 -7.2 19.1 0
15:26 1021 30.15 850 25.1 1.4 34.4 52 -7.4 18.6 0
15:27 1021 30.15 850 25.1 1.3 34.4 53 -7.1 19.1 0
15:28 1021 30.15 850 25.1 1.3 34.3 55 -6.8 19.7 0
15:29 1021 30.15 850 25.1 1.2 34.2 52 -7.5 18.5 0
15:30 1021 30.15 850 25.1 1.3 34.3 51 -7.9 17.8 0
15:31 1021 30.15 850 25.1 1.3 34.4 53 -7.3 18.9 0
15:32 1021 30.15 850 25.1 1.4 34.5 54 -6.8 19.7 0
15:33 1021 30.15 850 25.1 1.4 34.5 55 -6.6 20.2 0
15:34 1021 30.15 850 25.1 1.3 34.4 57 -6.4 20.5 0
15:35 1021 30.15 850 25.1 1.2 34.2 55 -6.9 19.7 0
15:36 1021 30.15 850 25.1 1.2 34.1 57 -6.4 20.5 0
15:37 1021 30.15 850 25.1 1.2 34.2 54 -7.1 19.2 0
15:38 1021 30.15 850 25.1 1.2 34.2 52 -7.5 18.5 0
15:39 1021 30.15 850 25.1 1.3 34.4 53 -7.3 18.9 0
15:40 1021 30.15 850 25.1 1.5 34.7 54 -6.8 19.8 0
15:41 1021 30.15 850 25.1 1.5 34.7 54 -6.8 19.7 0
15:42 1021 30.15 850 25.1 1.5 34.7 53 -7 19.5 0
15:43 1021 30.15 850 25.1 1.4 34.5 52 -7.4 18.7 0
15:44 1021 30.15 850 25.1 1.3 34.4 54 -7 19.4 0
15:45 1021 30.15 850 25.1 1.2 34.2 52 -7.6 18.3 0
15:46 1021 30.15 850 25.1 1.2 34.2 54 -7.2 19.1 0
15:47 1021 30.15 850 25.1 1.2 34.1 53 -7.4 18.7 0
15:48 1021 30.15 850 25.1 1.1 34 54 -7.2 19 0
15:49 1021 30.15 850 25.1 1.1 34 53 -7.4 18.7 0
15:50 1021 30.15 850 25.1 1.1 33.9 54 -7.2 19 0
15:51 1021 30.15 850 25.1 1 33.9 53 -7.6 18.4 0
15:52 1021 30.15 850 25.1 1 33.8 54 -7.4 18.7 0
15:53 1021 30.15 850 25.1 1 33.8 54 -7.4 18.7 0
15:54 1021 30.15 850 25.1 0.9 33.6 56 -7 19.5 0
15:55 1021 30.15 850 25.1 0.8 33.4 58 -6.6 20.2 0
15:56 1021 30.15 850 25.1 0.6 33 57 -6.9 19.5 0
15:57 1021 30.15 850 25.1 0.4 32.7 58 -6.9 19.6 0
15:58 1021 30.15 850 25.1 0.3 32.5 59 -6.9 19.6 0
15:59 1021 30.15 850 25.1 0.2 32.3 60 -6.8 19.8 0
16:00 1021 30.15 850 25.1 -0 32 60 -6.8 19.7 0
16:01 1021 30.15 850 25.1 -0.2 31.7 61 -6.7 19.9 0
16:02 1021 30.15 850 25.1 -0.4 31.3 62 -6.7 19.9 0
16:03 1021 30.15 850 25.1 -0.5 31.1 62 -6.9 19.6 0
16:04 1021 30.15 850 25.1 -0.6 30.9 63 -6.8 19.7 0
16:05 1021 30.15 850 25.1 -0.7 30.8 62 -7.1 19.3 0
16:06 1021 30.15 850 25.1 -0.6 30.8 62 -7 19.4 0
16:07 1021 30.15 850 25.1 -0.7 30.7 62 -7.1 19.2 0
16:08 1021 30.15 850 25.1 -0.7 30.8 61 -7.3 18.9 0
16:09 1021 30.15 850 25.1 -0.6 31 61 -7.2 19.1 0
16:10 1021 30.15 850 25.1 -0.6 30.8 62 -7.1 19.2 0
16:11 1021 30.15 850 25.1 -0.8 30.6 63 -7 19.4 0
16:12 1021 30.15 850 25.1 -0.9 30.4 64 -6.9 19.6 0
16:13 1021 30.15 850 25.1 -1.1 30.1 64 -6.9 19.5 0
16:14 1021 30.15 850 25.1 -1 30.1 64 -6.9 19.5 0
16:15 1021 30.15 850 25.1 -1.1 30.1 64 -7 19.4 0
16:16 1021 30.15 850 25.1 -1.1 30 64 -7 19.4 0
16:17 1021 30.15 850 25.1 -1 30.1 63 -7.1 19.2 0
16:18 1021 30.15 850 25.1 -0.9 30.3 63 -7 19.4 0
16:19 1021 30.15 850 25.1 -0.9 30.5 63 -7 19.3 0
16:20 1021 30.15 850 25.1 -0.8 30.6 63 -7 19.5 0
16:21 1021 30.15 850 25.1 -0.7 30.7 64 -6.8 19.7 0
16:22 1021 30.15 850 25.1 -0.8 30.5 65 -6.6 20.1 0
16:23 1021 30.15 850 25.1 -0.9 30.4 62 -7.4 18.8 0
16:24 1021 30.15 850 25.1 -0.7 30.8 62 -7.1 19.2 0
16:25 1021 30.15 850 25.1 -0.6 31 63 -6.8 19.7 0
16:26 1021 30.15 850 25.1 -0.6 30.9 63 -6.8 19.7 0
16:27 1021 30.15 850 25.1 -0.6 30.8 63 -6.8 19.8 0
16:28 1021 30.15 850 25.1 -0.7 30.7 64 -6.7 20 0
16:29 1021 30.15 850 25.1 -0.8 30.6 66 -6.4 20.4 0
16:30 1021 30.15 850 25.1 -0.8 30.5 66 -6.5 20.4 0
16:31 1021 30.15 850 25.1 -0.9 30.4 66 -6.4 20.5 0
16:32 1021 30.15 850 25.1 -0.9 30.4 66 -6.4 20.6 0
16:33 1021 30.15 850 25.1 -0.8 30.5 67 -6.2 20.8 0
16:34 1021 30.15 850 25.1 -0.8 30.6 67 -6.2 20.9 0
16:35 1021 30.15 850 25.1 -0.8 30.5 67 -6.3 20.7 0
16:36 1021 30.15 850 25.1 -0.8 30.5 66 -6.4 20.4 0
16:37 1021 30.15 850 25.1 -0.8 30.5 66 -6.4 20.5 0
16:38 1021 30.15 850 25.1 -0.8 30.5 67 -6.2 20.9 0
16:39 1021 30.15 850 25.1 -0.9 30.4 68 -6.1 21 0
16:40 1021 30.15 850 25.1 -0.9 30.4 68 -6.1 21 0
16:41 1021 30.15 850 25.1 -0.9 30.4 68 -6.1 21.1 0
16:42 1021 30.15 850 25.1 -0.9 30.4 67 -6.3 20.7 0
16:43 1021 30.15 850 25.1 -0.8 30.6 69 -5.9 21.4 0
16:44 1021 30.15 850 25.1 -0.9 30.4 69 -5.9 21.4 0
16:45 1021 30.15 850 25.1 -0.9 30.4 69 -5.9 21.4 0
16:46 1021 30.15 850 25.1 -0.9 30.4 69 -5.8 21.6 0
16:47 1021 30.15 850 25.1 -0.9 30.4 69 -5.9 21.4 0
16:48 1021 30.15 850 25.1 -0.9 30.5 68 -6 21.2 0
16:49 1021 30.15 850 25.1 -0.8 30.6 68 -5.9 21.4 0
16:50 1021 30.15 850 25.1 -0.8 30.6 69 -5.7 21.7 0
16:51 1021 30.15 850 25.1 -0.8 30.6 69 -5.6 21.8 0
16:52 1021 30.15 850 25.1 -0.8 30.6 69 -5.7 21.7 0
16:53 1021 30.15 850 25.1 -0.7 30.7 68 -5.9 21.3 0
16:54 1021 30.15 850 25.1 -0.6 30.8 67 -6 21.3 0
16:55 1021 30.15 850 25.1 -0.6 31 68 -5.8 21.6 0
16:56 1021 30.15 850 25.1 -0.6 31 68 -5.7 21.7 0
16:57 1021 30.15 850 25.1 -0.6 31 68 -5.8 21.5 0
16:58 1021 30.15 850 25.1 -0.5 31 67 -5.9 21.3 0
16:59 1021 30.15 850 25.1 -0.5 31.1 66 -6.2 20.9 0
17:00 1021 30.15 850 25.1 -0.4 31.3 66 -5.9 21.3 0
17:01 1021 30.15 850 25.1 -0.4 31.3 65 -6.1 21 0
17:02 1021 30.15 850 25.1 -0.3 31.5 66 -6 21.2 0
17:03 1021 30.15 850 25.1 -0.3 31.4 64 -6.2 20.8 0
17:04 1021 30.15 850 25.1 -0.2 31.6 64 -6.2 20.9 0
17:05 1021 30.15 850 25.1 -0.2 31.7 63 -6.4 20.5 0
17:06 1021 30.15 850 25.1 -0.1 31.8 63 -6.3 20.7 0
17:07 1021 30.15 850 25.1 -0.1 31.8 65 -6 21.3 0
17:08 1021 30.15 850 25.1 -0.2 31.7 66 -5.8 21.6 0
17:09 1021 30.15 850 25.1 -0.2 31.6 66 -5.9 21.5 0
17:10 1021 30.15 850 25.1 -0.3 31.4 66 -5.9 21.4 0
17:11 1021 30.15 850 25.1 -0.3 31.4 66 -5.8 21.5 0
17:12 1021 30.15 850 25.1 -0.4 31.3 68 -5.6 21.9 0
17:13 1021 30.15 850 25.1 -0.5 31.1 68 -5.7 21.7 0
17:14 1021 30.15 850 25.1 -0.5 31.1 68 -5.7 21.8 0
17:15 1021 30.15 850 25.1 -0.5 31 68 -5.7 21.8 0
17:16 1021 30.15 850 25.1 -0.5 31 68 -5.6 21.8 0
17:17 1021 30.15 850 25.1 -0.6 31 69 -5.6 21.9 0
17:18 1021 30.15 850 25.1 -0.6 30.9 69 -5.6 21.9 0
17:19 1021 30.15 850 25.1 -0.6 30.9 69 -5.7 21.8 0
17:20 1021 30.15 850 25.1 -0.6 30.9 69 -5.6 21.9 0
17:21 1021 30.15 850 25.1 -0.6 30.9 69 -5.7 21.8 0
17:22 1021 30.15 850 25.1 -0.6 30.9 68 -5.8 21.6 0
17:23 1021 30.15 850 25.1 -0.6 31 68 -5.7 21.8 0
17:24 1021 30.15 850 25.1 -0.6 30.9 68 -5.7 21.7 0
17:25 1021 30.15 850 25.1 -0.6 31 68 -5.8 21.5 0
17:26 1021 30.15 850 25.1 -0.6 31 69 -5.6 21.9 0
17:27 1021 30.15 850 25.1 -0.6 31 69 -5.5 22 0
17:28 1021 30.15 850 25.1 -0.6 31 70 -5.5 22.2 0
17:29 1021 30.15 850 25.1 -0.6 30.9 68 -5.7 21.7 0
17:30 1021 30.15 850 25.1 -0.6 31 67 -5.9 21.4 0
17:31 1021 30.15 850 25.1 -0.5 31.1 67 -5.8 21.6 0
17:32 1021 30.15 850 25.1 -0.5 31.1 66 -6 21.2 0
17:33 1021 30.15 850 25.1 -0.4 31.2 66 -5.9 21.3 0
17:34 1021 30.15 850 25.1 -0.4 31.3 67 -5.8 21.6 0
17:35 1021 30.15 850 25.1 -0.4 31.3 67 -5.7 21.7 0
17:36 1021 30.15 850 25.1 -0.4 31.2 67 -5.8 21.6 0
17:37 1021 30.15 850 25.1 -0.4 31.2 66 -6 21.3 0
17:38 1021 30.15 850 25.1 -0.4 31.2 69 -5.5 22.1 0
17:39 1021 30.15 850 25.1 -0.5 31.2 68 -5.6 21.9 0
17:40 1021 30.15 850 25.1 -0.6 31 66 -6 21.1 0
17:41 1021 30.15 850 25.1 -0.5 31.1 67 -5.9 21.4 0
17:42 1021 30.15 850 25.1 -0.5 31.2 66 -6.1 21 0
17:43 1021 30.15 850 25.1 -0.4 31.3 66 -6.1 21 0
17:44 1021 30.15 850 25.1 -0.4 31.3 66 -6 21.2 0
17:45 1021 30.15 850 25.1 -0.3 31.4 66 -5.8 21.5 0
17:46 1021 30.15 850 25.1 -0.4 31.3 69 -5.4 22.3 0
17:47 1021 30.15 850 25.1 -0.5 31.1 68 -5.7 21.7 0
17:48 1021 30.15 850 25.1 -0.5 31 69 -5.6 21.9 0
17:49 1021 30.15 850 25.1 -0.5 31 70 -5.4 22.2 0
17:50 1021 30.15 850 25.1 -0.6 30.9 68 -5.8 21.6 0
17:51 1021 30.15 850 25.1 -0.5 31.1 66 -6.1 21 0
17:52 1021 30.15 850 25.1 -0.4 31.2 66 -6.1 21 0
17:53 1021 30.15 850 25.1 -0.4 31.4 67 -5.8 21.6 0
17:54 1021 30.15 850 25.1 -0.4 31.3 68 -5.6 22 0
17:55 1021 30.15 850 25.1 -0.4 31.2 66 -5.9 21.3 0
17:56 1021 30.15 850 25.1 -0.4 31.3 66 -5.9 21.3 0
17:57 1021 30.15 850 25.1 -0.3 31.5 64 -6.3 20.6 0
17:58 1021 30.15 850 25.1 -0.2 31.7 65 -6 21.2 0
17:59 1021 30.15 850 25.1 -0.2 31.6 64 -6.1 21 0
18:00 1021 30.15 850 25.1 -0.2 31.6 65 -6 21.2 0
18:01 1021 30.15 850 25.1 -0.2 31.6 65 -6.1 21.1 0
18:02 1021 30.15 850 25.1 -0.2 31.6 63 -6.3 20.6 0
18:03 1021 30.15 850 25.1 -0.2 31.7 64 -6.1 21 0
18:04 1021 30.15 850 25.1 -0.2 31.6 66 -5.9 21.5 0
18:05 1021 30.15 850 25.1 -0.3 31.5 66 -5.9 21.5 0
18:06 1021 30.15 850 25.1 -0.3 31.5 66 -5.9 21.3 0
18:07 1021 30.15 850 25.1 -0.3 31.4 67 -5.7 21.8 0
18:08 1021 30.15 850 25.1 -0.4 31.3 68 -5.7 21.8 0
18:09 1021 30.15 850 25.1 -0.4 31.2 67 -5.9 21.4 0
18:10 1021 30.15 850 25.1 -0.4 31.2 66 -6 21.2 0
18:11 1021 30.15 850 25.1 -0.4 31.3 67 -5.9 21.4 0
18:12 1021 30.15 850 25.1 -0.4 31.3 67 -5.9 21.4 0
18:13 1021 30.15 850 25.1 -0.4 31.3 65 -6.1 21 0
18:14 1021 30.15 850 25.1 -0.4 31.3 67 -5.9 21.5 0
18:15 1021 30.15 850 25.1 -0.4 31.3 67 -5.7 21.7 0
18:16 1021 30.15 850 25.1 -0.4 31.3 66 -6 21.3 0
18:17 1021 30.15 850 25.1 -0.4 31.3 67 -5.9 21.5 0
18:18 1021 30.15 850 25.1 -0.4 31.3 65 -6.2 20.8 0
18:19 1021 30.15 850 25.1 -0.3 31.5 65 -6.1 21.1 0
18:20 1021 30.15 850 25.1 -0.3 31.5 65 -6 21.2 0
18:21 1021 30.15 850 25.1 -0.3 31.5 65 -6 21.2 0
18:22 1021 30.15 850 25.1 -0.2 31.6 65 -6.1 21.1 0
18:23 1021 30.15 850 25.1 -0.2 31.6 65 -6.1 21.1 0
18:24 1021 30.15 850 25.1 -0.2 31.7 64 -6.1 21 0
18:25 1021 30.15 850 25.1 -0.2 31.6 65 -6.1 21 0
18:26 1021 30.15 850 25.1 -0.2 31.6 66 -5.8 21.6 0
18:27 1021 30.15 850 25.1 -0.2 31.6 67 -5.6 21.9 0
18:28 1021 30.15 850 25.1 -0.3 31.4 69 -5.4 22.3 0
18:29 1021 30.15 850 25.1 -0.4 31.3 71 -5.1 22.8 0
18:30 1021 30.15 850 25.1 -0.5 31 71 -5.2 22.7 0
18:31 1021 30.15 850 25.1 -0.6 30.8 70 -5.5 22.1 0
18:32 1021 30.15 850 25.1 -0.6 30.9 66 -6.2 20.9 0
18:33 1021 30.15 850 25.1 -0.5 31.2 60 -7.4 18.7 0
18:34 1021 30.15 850 25.1 -0.1 31.8 56 -7.8 18 0
18:35 1021 30.15 850 25.1 0.2 32.4 54 -8 17.7 0
18:36 1021 30.15 850 25.1 0.4 32.8 55 -7.7 18.1 0
18:37 1021 30.15 850 25.1 0.6 33 56 -7.3 18.9 0
18:38 1021 30.15 850 25.1 0.5 33 56 -7.2 19.1 0
18:39 1021 30.15 850 25.1 0.5 32.9 56 -7.3 18.9 0
18:40 1021 30.15 850 25.1 0.5 32.8 58 -6.9 19.6 0
18:41 1021 30.15 850 25.1 0.4 32.8 54 -7.9 17.9 0
18:42 1021 30.15 850 25.1 0.5 33 58 -6.8 19.7 0
18:43 1021 30.15 850 25.1 0.6 33 61 -6.2 20.8 0
18:44 1021 30.15 850 25.1 0.4 32.7 62 -6.1 21.1 0
18:45 1021 30.15 850 25.1 0.2 32.3 66 -5.5 22.1 0
18:46 1021 30.15 850 25.1 -0.1 31.9 66 -5.7 21.7 0
18:47 1021 30.15 850 25.1 -0.1 31.8 65 -6 21.2 0
18:48 1021 30.15 850 25.1 -0.1 31.9 66 -5.7 21.7 0
18:49 1021 30.15 850 25.1 0.1 32.1 66 -5.5 22.1 0
18:50 1021 30.15 850 25.1 0.2 32.3 63 -6.1 20.9 0
18:51 1021 30.15 850 25.1 0.3 32.5 66 -5.4 22.3 0
18:52 1021 30.15 850 25.1 0.2 32.4 68 -5.1 22.9 0
18:53 1021 30.15 850 25.1 0.1 32.2 68 -5.2 22.7 0
18:54 1021 30.15 850 25.1 0.1 32.1 68 -5.2 22.7 0
18:55 1021 30.15 850 25.1 0.1 32.1 67 -5.3 22.5 0
18:56 1021 30.15 850 25.1 0 32.1 68 -5.1 22.9 0
18:57 1021 30.15 850 25.1 0 32 70 -4.9 23.2 0
18:58 1021 30.15 850 25.1 -0 32 70 -4.8 23.4 0
18:59 1021 30.15 850 25.1 -0.1 31.8 72 -4.6 23.7 0
19:00 1021 30.15 850 25.1 -0.2 31.7 73 -4.5 23.9 0
19:01 1021 30.15 850 25.1 -0.2 31.6 72 -4.6 23.7 0
19:02 1021 30.15 850 25.1 -0.3 31.5 74 -4.3 24.2 0
19:03 1021 30.15 850 25.1 -0.3 31.4 71 -4.9 23.2 0
19:04 1021 30.15 850 25.1 -0.4 31.4 72 -4.8 23.4 0
19:05 1021 30.15 850 25.1 -0.3 31.5 73 -4.6 23.7 0
19:06 1021 30.15 850 25.1 -0.3 31.4 73 -4.7 23.6 0
19:07 1021 30.15 850 25.1 -0.3 31.4 73 -4.6 23.8 0
19:08 1021 30.15 850 25.1 -0.4 31.4 73 -4.6 23.8 0
19:09 1021 30.15 850 25.1 -0.4 31.3 72 -4.8 23.4 0
19:10 1021 30.15 850 25.1 -0.4 31.3 73 -4.7 23.5 0
19:11 1021 30.15 850 25.1 -0.4 31.3 72 -4.8 23.4 0
19:12 1021 30.15 850 25.1 -0.4 31.3 72 -4.8 23.4 0
19:13 1021 30.15 850 25.1 -0.4 31.2 73 -4.7 23.5 0
19:14 1021 30.15 850 25.1 -0.5 31.2 73 -4.7 23.5 0
19:15 1021 30.15 850 25.1 -0.5 31.1 74 -4.6 23.7 0
19:16 1021 30.15 850 25.1 -0.5 31.1 74 -4.5 23.9 0
19:17 1021 30.15 850 25.1 -0.5 31 74 -4.7 23.5 0
19:18 1021 30.15 850 25.1 -0.6 31 74 -4.7 23.6 0
19:19 1021 30.15 850 25.1 -0.6 30.9 74 -4.7 23.5 0
19:20 1021 30.15 850 25.1 -0.6 31 72 -5 23 0
19:21 1021 30.15 850 25.1 -0.5 31.1 71 -5.1 22.9 0
19:22 1021 30.15 850 25.1 -0.5 31.2 72 -4.9 23.2 0
19:23 1021 30.15 850 25.1 -0.4 31.2 73 -4.8 23.4 0
19:24 1021 30.15 850 25.1 -0.5 31.2 73 -4.8 23.4 0
19:25 1021 30.15 850 25.1 -0.5 31.1 73 -4.7 23.5 0
19:26 1021 30.15 850 25.1 -0.5 31.1 73 -4.8 23.4 0
19:27 1021 30.15 850 25.1 -0.4 31.2 73 -4.8 23.4 0
19:28 1021 30.15 850 25.1 -0.4 31.3 72 -4.8 23.4 0
19:29 1021 30.15 850 25.1 -0.4 31.3 73 -4.7 23.5 0
19:30 1021 30.15 850 25.1 -0.4 31.3 73 -4.7 23.6 0
19:31 1021 30.15 850 25.1 -0.4 31.3 73 -4.6 23.7 0
19:32 1021 30.15 850 25.1 -0.4 31.3 74 -4.5 23.8 0
19:33 1021 30.15 850 25.1 -0.4 31.3 74 -4.4 24 0
19:34 1021 30.15 850 25.1 -0.4 31.2 75 -4.4 24.1 0
19:35 1021 30.15 850 25.1 -0.5 31.1 76 -4.3 24.3 0
19:36 1021 30.15 850 25.1 -0.5 31.1 76 -4.3 24.3 0
19:37 1021 30.15 850 25.1 -0.6 31 76 -4.3 24.3 0
19:38 1021 30.15 850 25.1 -0.6 31 76 -4.2 24.4 0
19:39 1021 30.15 850 25.1 -0.6 31 76 -4.3 24.2 0
19:40 1021 30.15 850 25.1 -0.5 31 76 -4.3 24.3 0
19:41 1021 30.15 850 25.1 -0.6 31 76 -4.2 24.4 0
19:42 1021 30.15 850 25.1 -0.6 30.9 77 -4.2 24.4 0
19:43 1021 30.15 850 25.1 -0.6 30.9 76 -4.2 24.4 0
19:44 1021 30.15 850 25.1 -0.6 31 75 -4.5 24 0
19:45 1021 30.15 850 25.1 -0.5 31.1 73 -4.7 23.6 0
19:46 1021 30.15 850 25.1 -0.3 31.4 71 -4.9 23.1 0
19:47 1021 30.15 850 25.1 -0.2 31.7 72 -4.6 23.7 0
19:48 1021 30.15 850 25.1 -0.1 31.8 72 -4.6 23.8 0
19:49 1021 30.15 850 25.1 -0.1 31.8 70 -4.8 23.3 0
19:50 1021 30.15 850 25.1 -0 32 69 -5 22.9 0
19:51 1021 30.15 850 25.1 0 32.1 71 -4.7 23.6 0
19:52 1021 30.15 850 25.1 0.1 32.1 68 -5.2 22.7 0
19:53 1021 30.15 850 25.1 0.2 32.4 68 -5.1 22.9 0
19:54 1021 30.15 850 25.1 0.2 32.4 68 -4.9 23.2 0
19:55 1021 30.15 850 25.1 0.2 32.4 67 -5.3 22.5 0
19:56 1021 30.15 850 25.1 0.3 32.5 67 -5.2 22.7 0
19:57 1021 30.15 850 25.1 0.3 32.5 67 -5.2 22.6 0
19:58 1021 30.15 850 25.1 0.3 32.6 67 -5.1 22.8 0
19:59 1021 30.15 850 25.1 0.3 32.6 67 -5 22.9 0
20:00 1021 30.15 850 25.1 0.3 32.6 67 -5.1 22.8 0
20:01 1021 30.15 850 25.1 0.3 32.6 66 -5.3 22.5 0
20:02 1021 30.15 850 25.1 0.3 32.6 66 -5.3 22.5 0
20:03 1021 30.15 850 25.1 0.4 32.7 66 -5.2 22.6 0
20:04 1021 30.15 850 25.1 0.4 32.6 66 -5.3 22.5 0
20:05 1021 30.15 850 25.1 0.4 32.7 66 -5.2 22.6 0
20:06 1021 30.15 850 25.1 0.4 32.7 67 -5 23.1 0
20:07 1021 30.15 850 25.1 0.3 32.6 68 -4.9 23.1 0
20:08 1021 30.15 850 25.1 0.3 32.5 67 -5.2 22.7 0
20:09 1021 30.15 850 25.1 0.2 32.4 67 -5.2 22.7 0
20:10 1021 30.15 850 25.1 0.3 32.5 69 -4.9 23.2 0
20:11 1021 30.15 850 25.1 0.2 32.4 67 -5.2 22.6 0
20:12 1021 30.15 850 25.1 0.3 32.5 66 -5.3 22.5 0
20:13 1021 30.15 850 25.1 0.3 32.5 66 -5.3 22.4 0
20:14 1021 30.15 850 25.1 0.3 32.5 66 -5.4 22.2 0
20:15 1021 30.15 850 25.1 0.3 32.6 65 -5.6 22 0
20:16 1021 30.15 850 25.1 0.4 32.7 64 -5.6 21.9 0
20:17 1021 30.15 850 25.1 0.5 32.9 60 -6.4 20.5 0
20:18 1021 30.15 850 25.1 0.6 33.2 62 -5.8 21.5 0
20:19 1021 30.15 850 25.1 0.8 33.4 58 -6.5 20.3 0
20:20 1021 30.15 850 25.1 1 33.8 56 -6.9 19.6 0
20:21 1021 30.15 850 25.1 1.2 34.1 56 -6.7 20 0
20:22 1021 30.15 850 25.1 1.3 34.3 61 -5.4 22.2 0
20:23 1021 30.15 850 25.1 1.2 34.1 58 -6.2 20.9 0
20:24 1021 30.15 850 25.1 1.1 33.9 59 -6 21.2 0
20:25 1021 30.15 850 25.1 1 33.8 59 -6.1 21 0
20:26 1021 30.15 850 25.1 1.2 34.1 59 -6 21.2 0
20:27 1021 30.15 850 25.1 1.2 34.2 57 -6.4 20.4 0
20:28 1021 30.15 850 25.1 1.4 34.5 56 -6.4 20.6 0
20:29 1021 30.15 850 25.1 1.4 34.4 59 -5.9 21.4 0
20:30 1021 30.15 850 25.1 1.2 34.1 59 -6 21.2 0
20:31 1021 30.15 850 25.1 1.2 34.1 60 -5.7 21.8 0
20:32 1021 30.15 850 25.1 1.1 34 62 -5.4 22.3 0
20:33 1021 30.15 850 25.1 1 33.8 63 -5.2 22.6 0
20:34 1021 30.15 850 25.1 0.9 33.6 61 -5.8 21.6 0
20:35 1021 30.15 850 25.1 0.9 33.6 62 -5.7 21.8 0
20:36 1021 30.15 850 25.1 0.8 33.5 61 -5.9 21.5 0
20:37 1021 30.15 850 25.1 0.8 33.5 63 -5.4 22.3 0
20:38 1021 30.15 850 25.1 0.8 33.4 63 -5.4 22.3 0
20:39 1021 30.15 850 25.1 0.7 33.3 63 -5.6 22 0
20:40 1021 30.15 850 25.1 0.7 33.3 62 -5.6 21.8 0
20:41 1021 30.15 850 25.1 0.8 33.4 62 -5.8 21.6 0
20:42 1021 30.15 850 25.1 0.8 33.4 62 -5.7 21.7 0
20:43 1021 30.15 850 25.1 0.8 33.5 63 -5.4 22.3 0
20:44 1021 30.15 850 25.1 0.8 33.4 65 -5 23 0
20:45 1021 30.15 850 25.1 0.7 33.2 64 -5.3 22.4 0
20:46 1021 30.15 850 25.1 0.6 33.1 64 -5.4 22.3 0
20:47 1021 30.15 850 25.1 0.6 33.1 63 -5.7 21.7 0
20:48 1021 30.15 850 25.1 0.6 33.1 61 -6 21.3 0
20:49 1021 30.15 850 25.1 0.7 33.2 64 -5.4 22.2 0
20:50 1021 30.15 850 25.1 0.7 33.2 66 -5 23 0
20:51 1021 30.15 850 25.1 0.6 33 68 -4.7 23.5 0
20:52 1021 30.15 850 25.1 0.5 32.9 68 -4.7 23.6 0
20:53 1021 30.15 850 25.1 0.4 32.7 69 -4.7 23.6 0
20:54 1021 30.15 850 25.1 0.3 32.6 68 -5 23 0
20:55 1021 30.15 850 25.1 0.3 32.6 66 -5.2 22.6 0
20:56 1021 30.15 850 25.1 0.3 32.6 67 -5.2 22.7 0
20:57 1021 30.15 850 25.1 0.4 32.7 65 -5.3 22.4 0
20:58 1021 30.15 850 25.1 0.4 32.8 66 -5.2 22.6 0
20:59 1021 30.15 850 25.1 0.4 32.7 67 -5.1 22.9 0
21:00 1021 30.15 850 25.1 0.4 32.7 66 -5.3 22.5 0
21:01 1021 30.15 850 25.1 0.4 32.7 69 -4.8 23.4 0
21:02 1021 30.15 850 25.1 0.3 32.5 70 -4.6 23.8 0
21:03 1021 30.15 850 25.1 0.2 32.4 65 -5.6 22 0
21:04 1021 30.15 850 25.1 0.2 32.4 64 -5.8 21.5 0
21:05 1021 30.15 850 25.1 0.4 32.7 63 -5.9 21.5 0
21:06 1021 30.15 850 25.1 0.5 33 63 -5.8 21.6 0
21:07 1021 30.15 850 25.1 0.6 33 64 -5.5 22.1 0
21:08 1021 30.15 850 25.1 0.6 33 64 -5.4 22.2 0
21:09 1021 30.15 850 25.1 0.6 33 63 -5.6 21.9 0
21:10 1021 30.15 850 25.1 0.6 33.1 62 -5.9 21.3 0
21:11 1021 30.15 850 25.1 0.6 33.2 61 -5.9 21.3 0
21:12 1021 30.15 850 25.1 0.7 33.2 62 -5.8 21.6 0
21:13 1021 30.15 850 25.1 0.7 33.3 63 -5.5 22.1 0
21:14 1021 30.15 850 25.1 0.8 33.4 62 -5.8 21.6 0
21:15 1021 30.15 850 25.1 0.8 33.5 59 -6.3 20.6 0
21:16 1021 30.15 850 25.1 1 33.7 60 -5.9 21.3 0
21:17 1021 30.15 850 25.1 1.1 33.9 60 -5.9 21.5 0
21:18 1021 30.15 850 25.1 1 33.9 62 -5.5 22 0
21:19 1021 30.15 850 25.1 0.9 33.7 60 -6 21.3 0
21:20 1021 30.15 850 25.1 0.9 33.7 61 -5.8 21.6 0
21:21 1021 30.15 850 25.1 0.9 33.6 61 -5.8 21.5 0
21:22 1021 30.15 850 25.1 0.8 33.5 62 -5.7 21.8 0
21:23 1021 30.15 850 25.1 0.8 33.5 60 -6.1 21.1 0
21:24 1021 30.15 850 25.1 0.7 33.3 61 -5.9 21.3 0
21:25 1021 30.15 850 25.1 0.7 33.3 61 -5.9 21.5 0
21:26 1021 30.15 850 25.1 0.7 33.3 63 -5.5 22 0
21:27 1021 30.15 850 25.1 0.7 33.3 64 -5.3 22.5 0
21:28 1021 30.15 850 25.1 0.6 33 64 -5.5 22.1 0
21:29 1021 30.15 850 25.1 0.5 33 63 -5.7 21.7 0
21:30 1021 30.15 850 25.1 0.6 33 62 -6 21.3 0
21:31 1021 30.15 850 25.1 0.8 33.4 58 -6.6 20.1 0
21:32 1021 30.15 850 25.1 0.9 33.7 57 -6.8 19.8 0
21:33 1021 30.15 850 25.1 1.1 33.9 56 -6.8 19.8 0
21:34 1021 30.15 850 25.1 1.1 34 56 -6.6 20.1 0
21:35 1021 30.15 850 25.1 1.1 34 59 -6 21.3 0
21:36 1021 30.15 850 25.1 1 33.8 61 -5.7 21.8 0
21:37 1021 30.15 850 25.1 0.9 33.6 62 -5.6 21.9 0
21:38 1021 30.15 850 25.1 0.8 33.4 62 -5.6 21.9 0
21:39 1021 30.15 850 25.1 0.6 33.1 62 -5.9 21.5 0
21:40 1021 30.15 850 25.1 0.5 33 61 -6.1 21.1 0
21:41 1021 30.15 850 25.1 0.5 32.9 62 -5.9 21.4 0
21:42 1021 30.15 850 25.1 0.5 32.9 61 -6.2 20.9 0
21:43 1021 30.15 850 25.1 0.5 32.9 64 -5.5 22.1 0
21:44 1021 30.15 850 25.1 0.4 32.7 66 -5.2 22.7 0
21:45 1021 30.15 850 25.1 0.3 32.5 67 -5.2 22.6 0
21:46 1021 30.15 850 25.1 0.1 32.2 66 -5.6 22 0
21:47 1021 30.15 850 25.1 0.1 32.3 67 -5.4 22.4 0
21:48 1021 30.15 850 25.1 0.1 32.1 66 -5.5 22.2 0
21:49 1021 30.15 850 25.1 0 32.1 66 -5.6 21.9 0
21:50 1021 30.15 850 25.1 0 32.1 65 -5.8 21.6 0
21:51 1021 30.15 850 25.1 0.1 32.2 66 -5.5 22.2 0
21:52 1021 30.15 850 25.1 0.1 32.2 67 -5.3 22.5 0
21:53 1021 30.15 850 25.1 0.1 32.2 63 -6 21.1 0
21:54 1021 30.15 850 25.1 0.2 32.4 63 -6 21.3 0
21:55 1021 30.15 850 25.1 0.2 32.4 64 -5.8 21.6 0
21:56 1021 30.15 850 25.1 0.3 32.5 65 -5.5 22 0
21:57 1021 30.15 850 25.1 0.2 32.4 66 -5.4 22.2 0
21:58 1021 30.15 850 25.1 0.2 32.3 63 -6.1 20.9 0
21:59 1021 30.15 850 25.1 0.3 32.5 63 -6 21.3 0
22:00 1021 30.15 850 25.1 0.4 32.7 63 -5.9 21.3 0
22:01 1021 30.15 851 25.13 0.4 32.8 62 -6.1 21 0
22:02 1021 30.15 850 25.1 0.5 32.8 63 -5.8 21.5 0
22:03 1021 30.15 850 25.1 0.5 32.9 62 -5.9 21.4 0
22:04 1021 30.15 850 25.1 0.5 32.9 59 -6.6 20.1 0
22:05 1021 30.15 850 25.1 0.5 33 62 -5.9 21.4 0
22:06 1021 30.15 850 25.1 0.5 32.9 62 -5.9 21.3 0
22:07 1021 30.15 850 25.1 0.5 32.8 63 -5.8 21.6 0
22:08 1021 30.15 850 25.1 0.5 32.9 62 -6 21.2 0
22:09 1021 30.15 850 25.1 0.4 32.8 61 -6.2 20.9 0
22:10 1021 30.15 850 25.1 0.5 33 60 -6.4 20.5 0
22:11 1021 30.15 850 25.1 0.6 33 59 -6.4 20.4 0
22:12 1021 30.15 850 25.1 0.7 33.2 62 -5.8 21.6 0
22:13 1021 30.15 850 25.1 0.6 33.1 64 -5.5 22.1 0
22:14 1021 30.15 850 25.1 0.5 33 61 -6.2 20.9 0
22:15 1021 30.15 850 25.1 0.5 33 63 -5.7 21.8 0
22:16 1021 30.15 850 25.1 0.5 33 60 -6.3 20.7 0
22:17 1021 30.15 850 25.1 0.7 33.2 62 -5.9 21.4 0
22:18 1021 30.15 850 25.1 0.6 33.2 61 -6 21.3 0
22:19 1021 30.15 850 25.1 0.6 33.1 65 -5.3 22.5 0
22:20 1021 30.15 850 25.1 0.5 32.8 64 -5.5 22 0
22:21 1021 30.15 850 25.1 0.4 32.8 66 -5.2 22.6 0
22:22 1021 30.15 850 25.1 0.3 32.6 66 -5.3 22.5 0
22:23 1021 30.15 850 25.1 0.2 32.4 67 -5.3 22.5 0
22:24 1021 30.15 850 25.1 0.2 32.4 65 -5.6 22 0
22:25 1021 30.15 850 25.1 0.2 32.4 64 -5.8 21.6 0
22:26 1021 30.15 850 25.1 0.3 32.5 63 -5.9 21.4 0
22:27 1021 30.15 850 25.1 0.4 32.7 63 -5.8 21.6 0
22:28 1021 30.15 850 25.1 0.4 32.8 62 -6 21.1 0
22:29 1021 30.15 850 25.1 0.5 32.9 61 -6.2 20.8 0
22:30 1021 30.15 850 25.1 0.5 33 62 -6 21.2 0
22:31 1021 30.15 850 25.1 0.5 32.9 63 -5.7 21.7 0
22:32 1021 30.15 850 25.1 0.5 32.8 65 -5.5 22.2 0
22:33 1021 30.15 850 25.1 0.4 32.7 66 -5.3 22.4 0
22:34 1021 30.15 850 25.1 0.3 32.5 69 -4.7 23.5 0
22:35 1021 30.15 850 25.1 0.1 32.2 70 -4.8 23.4 0
22:36 1021 30.15 850 25.1 -0 31.9 70 -4.9 23.1 0
22:37 1021 30.15 850 25.1 -0.1 31.9 70 -5 23.1 0
22:38 1021 30.15 850 25.1 -0.1 31.9 69 -5.2 22.7 0
22:39 1021 30.15 850 25.1 -0.1 31.8 68 -5.3 22.4 0
22:40 1021 30.15 850 25.1 -0 32 69 -4.9 23.1 0
22:41 1021 30.15 850 25.1 -0.1 31.9 69 -5.1 22.8 0
22:42 1021 30.15 850 25.1 -0.1 31.9 67 -5.4 22.2 0
22:43 1021 30.15 850 25.1 0 32 69 -5 22.9 0
22:44 1021 30.15 850 25.1 0 32 67 -5.5 22.1 0
22:45 1021 30.15 850 25.1 0.1 32.1 66 -5.5 22.1 0
22:46 1021 30.15 850 25.1 0.1 32.2 67 -5.4 22.4 0
22:47 1021 30.15 850 25.1 0.1 32.2 68 -5.2 22.7 0
22:48 1021 30.15 850 25.1 0.1 32.2 66 -5.5 22.2 0
22:49 1021 30.15 850 25.1 0.1 32.2 66 -5.5 22.1 0
22:50 1021 30.15 850 25.1 0.1 32.3 66 -5.4 22.3 0
22:51 1021 30.15 850 25.1 0.1 32.2 67 -5.4 22.3 0
22:52 1021 30.15 850 25.1 0.1 32.2 68 -5.2 22.6 0
22:53 1021 30.15 850 25.1 0 32.1 68 -5.2 22.6 0
22:54 1021 30.15 850 25.1 0 32.1 69 -5.1 22.9 0
22:55 1021 30.15 850 25.1 -0 32 70 -4.8 23.4 0
22:56 1021 30.15 850 25.1 -0.1 31.8 71 -4.7 23.5 0
22:57 1021 30.15 850 25.1 -0.2 31.6 72 -4.7 23.5 0
22:58 1021 30.15 850 25.1 -0.3 31.4 73 -4.6 23.8 0
22:59 1021 30.15 851 25.13 -0.4 31.3 74 -4.5 23.8 0
23:00 1021 30.15 851 25.13 -0.5 31.2 73 -4.7 23.6 0
23:01 1021 30.15 851 25.13 -0.4 31.2 73 -4.7 23.5 0
23:02 1021 30.15 851 25.13 -0.4 31.2 72 -4.8 23.3 0
23:03 1021 30.15 851 25.13 -0.4 31.3 72 -4.8 23.3 0
23:04 1021 30.15 851 25.13 -0.4 31.4 72 -4.8 23.4 0
23:05 1021 30.15 851 25.13 -0.3 31.4 72 -4.7 23.5 0
23:06 1021 30.15 851 25.13 -0.4 31.3 72 -4.8 23.4 0
23:07 1021 30.15 851 25.13 -0.4 31.4 72 -4.8 23.3 0
23:08 1021 30.15 850 25.1 -0.3 31.4 71 -4.9 23.2 0
23:09 1021 30.15 850 25.1 -0.3 31.4 71 -4.9 23.2 0
23:10 1021 30.15 850 25.1 -0.3 31.4 71 -4.9 23.1 0
23:11 1021 30.15 850 25.1 -0.3 31.5 71 -4.9 23.1 0
23:12 1021 30.15 850 25.1 -0.3 31.5 71 -4.9 23.3 0
23:13 1021 30.15 850 25.1 -0.3 31.5 72 -4.8 23.3 0
23:14 1021 30.15 850 25.1 -0.3 31.5 72 -4.7 23.5 0
23:15 1021 30.15 850 25.1 -0.3 31.4 72 -4.8 23.4 0
23:16 1021 30.15 851 25.13 -0.3 31.4 72 -4.8 23.4 0
23:17 1021 30.15 851 25.13 -0.3 31.4 72 -4.8 23.4 0
23:18 1021 30.15 851 25.13 -0.4 31.4 73 -4.6 23.7 0
23:19 1021 30.15 851 25.13 -0.4 31.3 73 -4.6 23.6 0
23:20 1021 30.15 851 25.13 -0.4 31.2 74 -4.6 23.7 0
23:21 1021 30.15 851 25.13 -0.4 31.2 74 -4.5 23.8 0
23:22 1021 30.15 851 25.13 -0.4 31.2 74 -4.5 23.9 0
23:23 1021 30.15 851 25.13 -0.5 31.1 74 -4.5 23.9 0
23:24 1021 30.15 851 25.13 -0.5 31.1 75 -4.5 24 0
23:25 1021 30.15 851 25.13 -0.5 31.1 75 -4.5 23.9 0
23:26 1021 30.15 851 25.13 -0.5 31 74 -4.6 23.8 0
23:27 1021 30.15 851 25.13 -0.5 31.1 74 -4.6 23.7 0
23:28 1021 30.15 851 25.13 -0.5 31.1 75 -4.4 24 0
23:29 1021 30.15 851 25.13 -0.5 31.1 75 -4.5 23.9 0
23:30 1021 30.15 851 25.13 -0.5 31.1 75 -4.5 23.9 0
23:31 1021 30.15 851 25.13 -0.5 31.1 75 -4.5 23.9 0
23:32 1021 30.15 851 25.13 -0.5 31.1 75 -4.4 24.1 0
23:33 1021 30.15 851 25.13 -0.5 31.1 75 -4.4 24.1 0
23:34 1021 30.15 851 25.13 -0.5 31.1 76 -4.3 24.3 0
23:35 1021 30.15 851 25.13 -0.6 31 76 -4.3 24.3 0
23:36 1021 30.15 851 25.13 -0.6 30.9 76 -4.3 24.2 0
23:37 1021 30.15 851 25.13 -0.6 31 76 -4.3 24.2 0
23:38 1021 30.15 851 25.13 -0.6 30.9 76 -4.4 24.2 0
23:39 1021 30.15 851 25.13 -0.6 31 76 -4.3 24.3 0
23:40 1021 30.15 851 25.13 -0.5 31 77 -4.1 24.6 0
23:41 1021 30.15 851 25.13 -0.6 31 78 -4 24.8 0
23:42 1021 30.15 851 25.13 -0.6 30.9 78 -4 24.8 0
23:43 1021 30.15 851 25.13 -0.7 30.8 78 -4 24.7 0
23:44 1021 30.15 851 25.13 -0.7 30.8 78 -4.1 24.7 0
23:45 1021 30.15 851 25.13 -0.7 30.8 78 -4.1 24.6 0
23:46 1022 30.18 851 25.13 -0.6 30.9 77 -4.2 24.5 0
23:47 1022 30.18 851 25.13 -0.6 31 77 -4.1 24.6 0
23:48 1022 30.18 851 25.13 -0.5 31 77 -4.1 24.7 0
23:49 1022 30.18 851 25.13 -0.6 31 77 -4 24.8 0
23:50 1022 30.18 851 25.13 -0.5 31.1 77 -4 24.8 0
23:51 1022 30.18 851 25.13 -0.5 31 78 -4 24.8 0
23:52 1022 30.18 851 25.13 -0.6 31 77 -4 24.8 0
23:53 1022 30.18 851 25.13 -0.5 31.1 77 -4 24.7 0
23:54 1022 30.18 851 25.13 -0.5 31.1 77 -4 24.8 0
23:55 1022 30.18 851 25.13 -0.5 31 78 -4 24.8 0
23:56 1022 30.18 851 25.13 -0.5 31 77 -4 24.8 0
23:57 1022 30.18 851 25.13 -0.5 31.1 77 -4 24.8 0
23:58 1022 30.18 851 25.13 -0.5 31 78 -4 24.8 0
23:59 1022 30.18 851 25.13 -0.5 31.1 78 -4 24.8 0
24:00 1022 30.18 851 25.13 -0.5 31 77 -4.1 24.7 0